ASA51 KJFK-PHNL

Flight info

Callsign ASA51
Flight time 10h 54m
Altitude 38000
Route DEEZZ6 CANDR J60 DJB JOT LNK DVV DTA MVA OAK BEBOP R464 BITTA INOYI1
Aircraft A332/H-SDE3GHIJ2J3J5M1RVWXY/LB2D1

Departure

Time 2026-05-05 06:06
Airport John F. Kennedy International Airport (KJFK)

Arrival

Time 2026-05-05 17:00
Airport Daniel K. Inouye International Airport (PHNL)
Time Latitude Longitude Altitude Speed Heading
2026-05-05 05:42 40.64013 -73.78076 27 ft 0 kts 247°
2026-05-05 05:52 40.64021 -73.78053 27 ft 4 kts 247°
2026-05-05 05:53 40.64030 -73.78023 27 ft 2 kts 247°
2026-05-05 05:53 40.64041 -73.77997 27 ft 4 kts 216°
2026-05-05 05:53 40.64063 -73.77990 27 ft 4 kts 160°
2026-05-05 05:53 40.64071 -73.77994 27 ft 4 kts 151°
2026-05-05 05:54 40.64056 -73.77983 27 ft 1 kts 150°
2026-05-05 05:57 40.64048 -73.77977 27 ft 3 kts 150°
2026-05-05 05:58 40.64016 -73.77957 27 ft 7 kts 161°
2026-05-05 05:58 40.63969 -73.77946 27 ft 7 kts 172°
2026-05-05 05:58 40.63897 -73.77934 27 ft 14 kts 173°
2026-05-05 05:58 40.63781 -73.77916 27 ft 20 kts 173°
2026-05-05 05:59 40.63642 -73.77895 27 ft 20 kts 173°
2026-05-05 05:59 40.63560 -73.77835 29 ft 12 kts 125°
2026-05-05 05:59 40.63509 -73.77729 31 ft 11 kts 130°
2026-05-05 05:59 40.63489 -73.77723 27 ft 2 kts 199°
2026-05-05 06:00 40.63468 -73.77737 28 ft 6 kts 205°
2026-05-05 06:00 40.63418 -73.77776 30 ft 12 kts 213°
2026-05-05 06:00 40.63348 -73.77877 29 ft 19 kts 243°
2026-05-05 06:00 40.63334 -73.78056 28 ft 21 kts 284°
2026-05-05 06:01 40.63406 -73.78235 29 ft 23 kts 301°
2026-05-05 06:01 40.63493 -73.78427 30 ft 25 kts 301°
2026-05-05 06:01 40.63580 -73.78619 29 ft 25 kts 301°
2026-05-05 06:01 40.63679 -73.78837 31 ft 30 kts 301°
2026-05-05 06:02 40.63788 -73.79078 29 ft 30 kts 301°
2026-05-05 06:02 40.63893 -73.79310 25 ft 30 kts 301°
2026-05-05 06:02 40.63997 -73.79539 31 ft 29 kts 301°
2026-05-05 06:02 40.64097 -73.79760 29 ft 27 kts 301°
2026-05-05 06:03 40.64218 -73.79950 27 ft 27 kts 317°
2026-05-05 06:03 40.64326 -73.80157 26 ft 31 kts 301°
2026-05-05 06:03 40.64435 -73.80399 26 ft 29 kts 300°
2026-05-05 06:03 40.64538 -73.80627 26 ft 28 kts 300°
2026-05-05 06:04 40.64633 -73.80838 29 ft 26 kts 301°
2026-05-05 06:04 40.64725 -73.81036 31 ft 25 kts 301°
2026-05-05 06:04 40.64815 -73.81237 29 ft 26 kts 300°
2026-05-05 06:04 40.64908 -73.81446 29 ft 27 kts 301°
2026-05-05 06:05 40.64929 -73.81572 27 ft 11 kts 233°
2026-05-05 06:05 40.64865 -73.81629 29 ft 10 kts 211°
2026-05-05 06:05 40.64810 -73.81615 28 ft 9 kts 122°
2026-05-05 06:05 40.64766 -73.81517 30 ft 19 kts 120°
2026-05-05 06:06 40.64622 -73.81198 32 ft 69 kts 121°
2026-05-05 06:06 40.64284 -73.80451 26 ft 122 kts 120°
2026-05-05 06:06 40.63761 -73.79300 28 ft 170 kts 121°
2026-05-05 06:06 40.63167 -73.77922 655 ft 171 kts 120°
2026-05-05 06:07 40.62561 -73.76546 1237 ft 182 kts 127°
2026-05-05 06:07 40.61805 -73.75085 1439 ft 204 kts 136°
2026-05-05 06:07 40.60617 -73.73992 1565 ft 218 kts 168°
2026-05-05 06:07 40.59079 -73.73878 1793 ft 228 kts 197°
2026-05-05 06:08 40.57637 -73.74734 2390 ft 228 kts 212°
2026-05-05 06:08 40.56364 -73.75914 3073 ft 227 kts 223°
2026-05-05 06:08 40.55410 -73.77563 3747 ft 230 kts 243°
2026-05-05 06:08 40.55067 -73.79626 4400 ft 237 kts 267°
2026-05-05 06:09 40.55524 -73.81741 5093 ft 250 kts 294°
2026-05-05 06:09 40.56537 -73.83628 5868 ft 251 kts 295°
2026-05-05 06:09 40.57340 -73.85671 6529 ft 255 kts 291°
2026-05-05 06:09 40.58127 -73.87780 7213 ft 258 kts 290°
2026-05-05 06:10 40.58912 -73.89923 7957 ft 261 kts 290°
2026-05-05 06:10 40.59700 -73.92089 8689 ft 264 kts 291°
2026-05-05 06:10 40.60484 -73.94251 9414 ft 267 kts 291°
2026-05-05 06:10 40.61288 -73.96470 10109 ft 271 kts 291°
2026-05-05 06:11 40.62117 -73.98766 10445 ft 287 kts 291°
2026-05-05 06:11 40.62996 -74.01222 10679 ft 305 kts 291°
2026-05-05 06:11 40.63926 -74.03826 10947 ft 322 kts 292°
2026-05-05 06:11 40.64901 -74.06534 11394 ft 331 kts 292°
2026-05-05 06:12 40.65901 -74.09293 11971 ft 337 kts 292°
2026-05-05 06:12 40.66919 -74.12093 12589 ft 341 kts 292°
2026-05-05 06:12 40.67948 -74.14924 13243 ft 345 kts 292°
2026-05-05 06:12 40.68975 -74.17757 13822 ft 349 kts 292°
2026-05-05 06:13 40.70028 -74.20665 14391 ft 353 kts 292°
2026-05-05 06:13 40.71087 -74.23595 14989 ft 355 kts 291°
2026-05-05 06:13 40.72151 -74.26544 15581 ft 358 kts 291°
2026-05-05 06:13 40.73221 -74.29515 16163 ft 360 kts 291°
2026-05-05 06:14 40.74299 -74.32513 16759 ft 363 kts 291°
2026-05-05 06:14 40.75385 -74.35536 17344 ft 366 kts 290°
2026-05-05 06:14 40.76462 -74.38540 17853 ft 370 kts 290°
2026-05-05 06:14 40.77569 -74.41631 18315 ft 375 kts 290°
2026-05-05 06:15 40.78686 -74.44751 18785 ft 378 kts 290°
2026-05-05 06:15 40.79812 -74.47897 19270 ft 380 kts 290°
2026-05-05 06:15 40.80945 -74.51064 19725 ft 383 kts 290°
2026-05-05 06:15 40.82085 -74.54255 20195 ft 386 kts 290°
2026-05-05 06:16 40.83232 -74.57468 20660 ft 388 kts 290°
2026-05-05 06:16 40.84387 -74.60709 21102 ft 391 kts 291°
2026-05-05 06:16 40.85548 -74.63971 21551 ft 394 kts 291°
2026-05-05 06:16 40.86699 -74.67208 21972 ft 396 kts 291°
2026-05-05 06:17 40.87872 -74.70512 22405 ft 399 kts 291°
2026-05-05 06:17 40.89053 -74.73840 22835 ft 401 kts 291°
2026-05-05 06:17 40.90240 -74.77193 23247 ft 404 kts 291°
2026-05-05 06:17 40.91436 -74.80572 23620 ft 406 kts 291°
2026-05-05 06:18 40.92635 -74.83963 23965 ft 409 kts 291°
2026-05-05 06:18 40.93842 -74.87382 24311 ft 411 kts 291°
2026-05-05 06:18 40.94948 -74.90868 24667 ft 411 kts 285°
2026-05-05 06:18 40.95655 -74.94526 25017 ft 412 kts 276°
2026-05-05 06:19 40.95841 -74.98253 25340 ft 413 kts 265°
2026-05-05 06:19 40.95457 -75.02021 25662 ft 415 kts 256°
2026-05-05 06:19 40.94758 -75.05739 25976 ft 418 kts 253°
2026-05-05 06:19 40.93928 -75.09429 26310 ft 420 kts 251°
2026-05-05 06:20 40.93035 -75.13117 26661 ft 422 kts 251°
2026-05-05 06:20 40.92124 -75.16807 26981 ft 424 kts 251°
2026-05-05 06:20 40.91212 -75.20526 27306 ft 426 kts 251°
2026-05-05 06:20 40.90308 -75.24264 27623 ft 428 kts 251°
2026-05-05 06:21 40.89423 -75.27971 27936 ft 430 kts 251°
2026-05-05 06:21 40.88529 -75.31752 28248 ft 432 kts 251°
2026-05-05 06:21 40.87633 -75.35560 28572 ft 435 kts 251°
2026-05-05 06:21 40.86735 -75.39379 28876 ft 437 kts 251°
2026-05-05 06:22 40.85831 -75.43219 29187 ft 439 kts 251°
2026-05-05 06:22 40.84920 -75.47077 29482 ft 441 kts 251°
2026-05-05 06:22 40.84001 -75.50962 29686 ft 445 kts 251°
2026-05-05 06:22 40.83085 -75.54824 29945 ft 448 kts 251°
2026-05-05 06:23 40.82154 -75.58745 30205 ft 449 kts 251°
2026-05-05 06:23 40.81215 -75.62690 30469 ft 451 kts 251°
2026-05-05 06:23 40.80273 -75.66642 30733 ft 453 kts 251°
2026-05-05 06:23 40.79325 -75.70611 30993 ft 454 kts 251°
2026-05-05 06:24 40.78373 -75.74591 31253 ft 455 kts 251°
2026-05-05 06:24 40.77421 -75.78565 31618 ft 454 kts 251°
2026-05-05 06:24 40.76469 -75.82532 32014 ft 452 kts 251°
2026-05-05 06:24 40.75532 -75.86425 32403 ft 450 kts 251°
2026-05-05 06:25 40.74585 -75.90355 32730 ft 449 kts 251°
2026-05-05 06:25 40.73638 -75.94275 33067 ft 448 kts 251°
2026-05-05 06:25 40.72692 -75.98186 33392 ft 448 kts 251°
2026-05-05 06:25 40.71747 -76.02091 33724 ft 447 kts 251°
2026-05-05 06:26 40.70802 -76.05991 34016 ft 446 kts 251°
2026-05-05 06:26 40.69857 -76.09885 34257 ft 446 kts 251°
2026-05-05 06:26 40.68913 -76.13775 34553 ft 445 kts 251°
2026-05-05 06:26 40.67997 -76.17649 34863 ft 442 kts 254°
2026-05-05 06:27 40.67367 -76.21548 35141 ft 440 kts 261°
2026-05-05 06:27 40.67341 -76.29536 35744 ft 435 kts 276°
2026-05-05 06:27 40.67807 -76.33464 36081 ft 432 kts 278°
2026-05-05 06:28 40.68354 -76.37345 36372 ft 430 kts 279°
2026-05-05 06:28 40.68941 -76.41208 36621 ft 429 kts 279°
2026-05-05 06:28 40.69539 -76.45049 36870 ft 428 kts 279°
2026-05-05 06:28 40.70134 -76.48882 37103 ft 427 kts 279°
2026-05-05 06:29 40.70720 -76.52706 37342 ft 425 kts 279°
2026-05-05 06:29 40.71290 -76.56475 37558 ft 424 kts 278°
2026-05-05 06:29 40.71858 -76.60279 37780 ft 423 kts 278°
2026-05-05 06:29 40.72421 -76.64088 37893 ft 423 kts 278°
2026-05-05 06:30 40.72979 -76.67891 37876 ft 422 kts 278°
2026-05-05 06:30 40.74088 -76.75468 37876 ft 421 kts 278°
2026-05-05 06:31 40.75190 -76.83045 37857 ft 421 kts 278°
2026-05-05 06:31 40.76280 -76.90570 37858 ft 421 kts 278°
2026-05-05 06:32 40.77371 -76.98139 37843 ft 420 kts 278°
2026-05-05 06:32 40.78459 -77.05722 37848 ft 420 kts 278°
2026-05-05 06:33 40.79540 -77.13292 37853 ft 420 kts 278°
2026-05-05 06:33 40.80610 -77.20825 37846 ft 420 kts 278°
2026-05-05 06:34 40.81682 -77.28410 37849 ft 420 kts 278°
2026-05-05 06:34 40.82749 -77.35999 37855 ft 421 kts 278°
2026-05-05 06:35 40.83812 -77.43587 37850 ft 421 kts 278°
2026-05-05 06:35 40.84870 -77.51186 37849 ft 421 kts 278°
2026-05-05 06:36 40.85915 -77.58730 37852 ft 420 kts 277°
2026-05-05 06:36 40.86963 -77.66334 37842 ft 421 kts 277°
2026-05-05 06:37 40.88006 -77.73947 37845 ft 421 kts 277°
2026-05-05 06:37 40.89045 -77.81562 37848 ft 421 kts 277°
2026-05-05 06:38 40.90071 -77.89121 37851 ft 421 kts 277°
2026-05-05 06:38 40.91101 -77.96742 37844 ft 421 kts 277°
2026-05-05 06:39 40.92095 -78.04380 37846 ft 422 kts 276°
2026-05-05 06:39 40.93042 -78.12054 37847 ft 423 kts 276°
2026-05-05 06:40 40.93980 -78.19731 37847 ft 423 kts 276°
2026-05-05 06:40 40.94912 -78.27361 37850 ft 423 kts 276°
2026-05-05 06:41 40.95847 -78.35033 37852 ft 423 kts 276°
2026-05-05 06:41 40.96780 -78.42723 37851 ft 423 kts 276°
2026-05-05 06:42 40.97706 -78.50405 37861 ft 423 kts 276°
2026-05-05 06:42 40.98621 -78.58045 37845 ft 423 kts 276°
2026-05-05 06:43 40.99538 -78.65735 37844 ft 423 kts 276°
2026-05-05 06:43 41.00448 -78.73422 37845 ft 422 kts 276°
2026-05-05 06:44 41.01199 -78.79796 37821 ft 421 kts 276°
2026-05-05 06:44 41.02249 -78.88764 37817 ft 421 kts 276°
2026-05-05 06:45 41.03136 -78.96380 37819 ft 421 kts 276°
2026-05-05 06:45 41.04023 -79.04057 37822 ft 421 kts 275°
2026-05-05 06:46 41.04753 -79.10408 37821 ft 419 kts 275°
2026-05-05 06:46 41.05769 -79.19289 37818 ft 420 kts 275°
2026-05-05 06:47 41.06639 -79.26942 37816 ft 420 kts 275°
2026-05-05 06:47 41.07357 -79.33295 37813 ft 420 kts 275°
2026-05-05 06:48 41.08215 -79.40944 37815 ft 420 kts 275°
2026-05-05 06:48 41.09213 -79.49889 37806 ft 419 kts 275°
2026-05-05 06:49 41.09917 -79.56237 37808 ft 419 kts 275°
2026-05-05 06:49 41.10760 -79.63876 37807 ft 419 kts 275°
2026-05-05 06:50 41.11591 -79.71467 37804 ft 419 kts 275°
2026-05-05 06:50 41.12423 -79.79107 37799 ft 419 kts 275°
2026-05-05 06:51 41.13250 -79.86753 37799 ft 418 kts 275°
2026-05-05 06:51 41.14071 -79.94384 37798 ft 418 kts 274°
2026-05-05 06:52 41.14888 -80.02033 37800 ft 418 kts 274°
2026-05-05 06:52 41.15693 -80.09621 37804 ft 418 kts 274°
2026-05-05 06:53 41.16499 -80.17258 37816 ft 418 kts 274°
2026-05-05 06:53 41.17300 -80.24908 37804 ft 419 kts 274°
2026-05-05 06:54 41.18098 -80.32575 37802 ft 420 kts 274°
2026-05-05 06:54 41.18887 -80.40205 37804 ft 420 kts 274°
2026-05-05 06:55 41.19674 -80.47878 37802 ft 420 kts 274°
2026-05-05 06:55 41.20457 -80.55558 37805 ft 420 kts 274°
2026-05-05 06:56 41.21233 -80.63220 37779 ft 418 kts 274°
2026-05-05 06:56 41.21997 -80.70822 37760 ft 418 kts 274°
2026-05-05 06:57 41.22761 -80.78465 37754 ft 418 kts 274°
2026-05-05 06:57 41.23520 -80.86116 37758 ft 418 kts 274°
2026-05-05 06:58 41.24274 -80.93766 37756 ft 417 kts 273°
2026-05-05 06:58 41.25021 -81.01398 37755 ft 415 kts 273°
2026-05-05 06:59 41.25755 -81.08956 37755 ft 415 kts 273°
2026-05-05 06:59 41.26489 -81.16559 37757 ft 415 kts 273°
2026-05-05 07:00 41.27218 -81.24166 37756 ft 415 kts 273°
2026-05-05 07:00 41.27942 -81.31779 37761 ft 415 kts 273°
2026-05-05 07:01 41.28660 -81.39379 37755 ft 414 kts 273°
2026-05-05 07:01 41.29368 -81.46929 37743 ft 414 kts 273°
2026-05-05 07:02 41.30076 -81.54531 37734 ft 414 kts 273°
2026-05-05 07:02 41.30777 -81.62129 37706 ft 414 kts 273°
2026-05-05 07:03 41.31473 -81.69730 37711 ft 414 kts 273°
2026-05-05 07:03 41.32162 -81.77290 37703 ft 415 kts 273°
2026-05-05 07:04 41.32850 -81.84912 37699 ft 415 kts 273°
2026-05-05 07:04 41.33533 -81.92530 37701 ft 415 kts 273°
2026-05-05 07:05 41.34211 -82.00151 37703 ft 415 kts 272°
2026-05-05 07:05 41.34883 -82.07769 37712 ft 415 kts 272°
2026-05-05 07:06 41.35545 -82.15340 37714 ft 415 kts 272°
2026-05-05 07:06 41.36060 -82.22970 37710 ft 414 kts 270°
2026-05-05 07:07 41.36471 -82.30615 37709 ft 414 kts 270°
2026-05-05 07:07 41.36874 -82.38263 37708 ft 414 kts 270°
2026-05-05 07:08 41.37285 -82.45863 37705 ft 414 kts 271°
2026-05-05 07:08 41.37701 -82.53516 37699 ft 414 kts 271°
2026-05-05 07:09 41.38114 -82.61159 37697 ft 414 kts 271°
2026-05-05 07:09 41.38522 -82.68816 37697 ft 414 kts 271°
2026-05-05 07:10 41.38921 -82.76417 37696 ft 414 kts 271°
2026-05-05 07:10 41.39317 -82.84067 37696 ft 414 kts 271°
2026-05-05 07:11 41.39709 -82.91731 37696 ft 415 kts 271°
2026-05-05 07:11 41.40096 -82.99391 37694 ft 414 kts 271°
2026-05-05 07:12 41.40477 -83.07049 37686 ft 414 kts 271°
2026-05-05 07:12 41.40851 -83.14654 37688 ft 414 kts 271°
2026-05-05 07:13 41.41221 -83.22309 37680 ft 413 kts 271°
2026-05-05 07:13 41.41585 -83.29915 37681 ft 411 kts 271°
2026-05-05 07:14 41.41944 -83.37520 37672 ft 411 kts 271°
2026-05-05 07:14 41.42295 -83.45070 37672 ft 411 kts 271°
2026-05-05 07:15 41.42643 -83.52667 37681 ft 411 kts 271°
2026-05-05 07:15 41.42984 -83.60248 37677 ft 407 kts 271°
2026-05-05 07:16 41.43318 -83.67737 37683 ft 404 kts 271°
2026-05-05 07:16 41.43644 -83.75157 37682 ft 404 kts 271°
2026-05-05 07:17 41.43967 -83.82634 37686 ft 404 kts 271°
2026-05-05 07:17 41.44285 -83.90112 37685 ft 404 kts 271°
2026-05-05 07:18 41.44598 -83.97579 37694 ft 403 kts 271°
2026-05-05 07:18 41.44905 -84.05034 37692 ft 402 kts 271°
2026-05-05 07:19 41.45206 -84.12436 37700 ft 402 kts 271°
2026-05-05 07:19 41.45504 -84.19881 37697 ft 402 kts 271°
2026-05-05 07:20 41.45797 -84.27337 37706 ft 402 kts 271°
2026-05-05 07:20 41.46084 -84.34780 37705 ft 402 kts 270°
2026-05-05 07:21 41.46364 -84.42153 37721 ft 401 kts 270°
2026-05-05 07:21 41.46642 -84.49571 37716 ft 401 kts 270°
2026-05-05 07:22 41.46914 -84.56985 37713 ft 401 kts 270°
2026-05-05 07:22 41.47181 -84.64401 37711 ft 400 kts 270°
2026-05-05 07:23 41.47444 -84.71818 37709 ft 400 kts 270°
2026-05-05 07:23 41.47700 -84.79181 37701 ft 400 kts 270°
2026-05-05 07:24 41.47953 -84.86596 37700 ft 400 kts 270°
2026-05-05 07:24 41.48202 -84.94014 37697 ft 400 kts 270°
2026-05-05 07:25 41.48445 -85.01431 37701 ft 400 kts 270°
2026-05-05 07:25 41.48683 -85.08791 37700 ft 400 kts 270°
2026-05-05 07:26 41.48916 -85.16201 37705 ft 400 kts 270°
2026-05-05 07:26 41.49145 -85.23605 37702 ft 400 kts 270°
2026-05-05 07:27 41.49370 -85.31021 37699 ft 400 kts 270°
2026-05-05 07:27 41.49588 -85.38377 37693 ft 400 kts 270°
2026-05-05 07:28 41.49803 -85.45788 37693 ft 400 kts 270°
2026-05-05 07:28 41.50013 -85.53191 37694 ft 399 kts 270°
2026-05-05 07:29 41.50218 -85.60587 37698 ft 399 kts 270°
2026-05-05 07:29 41.50417 -85.67936 37701 ft 399 kts 270°
2026-05-05 07:30 41.50612 -85.75331 37701 ft 399 kts 270°
2026-05-05 07:30 41.50897 -85.86433 37704 ft 399 kts 270°
2026-05-05 07:31 41.51080 -85.93833 37700 ft 399 kts 270°
2026-05-05 07:31 41.51258 -86.01175 37696 ft 399 kts 270°
2026-05-05 07:32 41.51432 -86.08578 37697 ft 399 kts 270°
2026-05-05 07:32 41.51602 -86.15978 37696 ft 399 kts 270°
2026-05-05 07:33 41.51766 -86.23377 37696 ft 399 kts 270°
2026-05-05 07:33 41.51925 -86.30723 37709 ft 399 kts 270°
2026-05-05 07:34 41.52080 -86.38119 37710 ft 399 kts 270°
2026-05-05 07:34 41.52231 -86.45515 37706 ft 399 kts 270°
2026-05-05 07:35 41.52376 -86.52907 37720 ft 399 kts 270°
2026-05-05 07:35 41.52516 -86.60252 37727 ft 398 kts 270°
2026-05-05 07:36 41.52652 -86.67629 37729 ft 397 kts 270°
2026-05-05 07:36 41.52783 -86.74993 37729 ft 397 kts 270°
2026-05-05 07:37 41.52910 -86.82360 37730 ft 397 kts 270°
2026-05-05 07:37 41.53031 -86.89728 37724 ft 397 kts 270°
2026-05-05 07:38 41.53147 -86.97038 37723 ft 397 kts 270°
2026-05-05 07:38 41.53259 -87.04392 37712 ft 395 kts 270°
2026-05-05 07:39 41.53366 -87.11726 37711 ft 395 kts 270°
2026-05-05 07:39 41.53468 -87.19058 37707 ft 395 kts 270°
2026-05-05 07:40 41.53566 -87.26388 37709 ft 395 kts 270°
2026-05-05 07:40 41.53659 -87.33674 37706 ft 395 kts 269°
2026-05-05 07:41 41.53747 -87.41008 37710 ft 395 kts 269°
2026-05-05 07:41 41.53830 -87.48332 37730 ft 395 kts 269°
2026-05-05 07:42 41.53910 -87.55659 37731 ft 395 kts 269°
2026-05-05 07:42 41.53984 -87.62933 37731 ft 395 kts 269°
2026-05-05 07:43 41.54054 -87.70260 37725 ft 395 kts 269°
2026-05-05 07:43 41.54119 -87.77591 37717 ft 395 kts 269°
2026-05-05 07:44 41.54179 -87.84924 37724 ft 395 kts 269°
2026-05-05 07:44 41.54235 -87.92201 37734 ft 395 kts 269°
2026-05-05 07:45 41.54286 -87.99527 37741 ft 395 kts 269°
2026-05-05 07:45 41.54333 -88.06848 37734 ft 395 kts 269°
2026-05-05 07:46 41.54374 -88.14180 37749 ft 395 kts 269°
2026-05-05 07:46 41.54411 -88.21509 37748 ft 395 kts 269°
2026-05-05 07:47 41.54444 -88.28791 37748 ft 395 kts 269°
2026-05-05 07:47 41.54356 -88.36118 37743 ft 395 kts 267°
2026-05-05 07:48 41.54072 -88.43438 37738 ft 395 kts 266°
2026-05-05 07:48 41.53756 -88.50765 37727 ft 395 kts 266°
2026-05-05 07:49 41.53457 -88.58039 37729 ft 395 kts 266°
2026-05-05 07:49 41.53165 -88.65359 37729 ft 395 kts 266°
2026-05-05 07:50 41.52873 -88.72680 37731 ft 395 kts 266°
2026-05-05 07:50 41.52576 -88.79992 37735 ft 395 kts 266°
2026-05-05 07:51 41.52275 -88.87265 37749 ft 395 kts 266°
2026-05-05 07:51 41.51967 -88.94569 37744 ft 394 kts 266°
2026-05-05 07:52 41.51656 -89.01858 37743 ft 393 kts 266°
2026-05-05 07:52 41.51340 -89.09142 37743 ft 393 kts 266°
2026-05-05 07:53 41.51022 -89.16378 37747 ft 393 kts 266°
2026-05-05 07:53 41.50697 -89.23666 37739 ft 393 kts 266°
2026-05-05 07:54 41.50367 -89.30943 37749 ft 393 kts 266°
2026-05-05 07:54 41.50034 -89.38203 37753 ft 392 kts 266°
2026-05-05 07:55 41.49699 -89.45417 37762 ft 392 kts 266°
2026-05-05 07:55 41.49357 -89.52679 37765 ft 392 kts 266°
2026-05-05 07:56 41.49010 -89.59937 37764 ft 392 kts 266°
2026-05-05 07:56 41.48659 -89.67191 37764 ft 392 kts 266°
2026-05-05 07:57 41.48305 -89.74396 37754 ft 392 kts 266°
2026-05-05 07:57 41.47945 -89.81657 37755 ft 392 kts 266°
2026-05-05 07:58 41.47580 -89.88907 37757 ft 392 kts 266°
2026-05-05 07:58 41.47210 -89.96164 37757 ft 392 kts 266°
2026-05-05 07:59 41.46838 -90.03364 37758 ft 391 kts 266°
2026-05-05 07:59 41.46461 -90.10580 37772 ft 389 kts 266°
2026-05-05 08:00 41.46081 -90.17783 37797 ft 389 kts 266°
2026-05-05 08:00 41.45696 -90.24979 37812 ft 389 kts 266°
2026-05-05 08:01 41.45310 -90.32127 37824 ft 389 kts 266°
2026-05-05 08:01 41.44916 -90.39323 37843 ft 389 kts 266°
2026-05-05 08:02 41.44517 -90.46516 37838 ft 388 kts 266°
2026-05-05 08:02 41.44116 -90.53684 37846 ft 388 kts 266°
2026-05-05 08:03 41.43714 -90.60804 37840 ft 388 kts 266°
2026-05-05 08:03 41.43303 -90.67974 37834 ft 388 kts 266°
2026-05-05 08:04 41.42889 -90.75141 37820 ft 388 kts 266°
2026-05-05 08:04 41.42469 -90.82306 37810 ft 388 kts 266°
2026-05-05 08:05 41.42049 -90.89406 37802 ft 387 kts 266°
2026-05-05 08:05 41.41623 -90.96546 37855 ft 387 kts 266°
2026-05-05 08:06 41.41192 -91.03686 37867 ft 387 kts 266°
2026-05-05 08:06 41.40757 -91.10830 37850 ft 387 kts 266°
2026-05-05 08:07 41.40319 -91.17926 37846 ft 387 kts 266°
2026-05-05 08:07 41.39876 -91.25043 37848 ft 385 kts 266°
2026-05-05 08:08 41.39429 -91.32149 37848 ft 385 kts 266°
2026-05-05 08:08 41.38979 -91.39250 37841 ft 385 kts 266°
2026-05-05 08:09 41.38527 -91.46301 37849 ft 385 kts 266°
2026-05-05 08:09 41.38068 -91.53393 37859 ft 385 kts 266°
2026-05-05 08:10 41.37604 -91.60463 37867 ft 381 kts 266°
2026-05-05 08:10 41.37141 -91.67476 37870 ft 380 kts 266°
2026-05-05 08:11 41.36679 -91.74436 37867 ft 380 kts 266°
2026-05-05 08:11 41.36209 -91.81443 37863 ft 380 kts 266°
2026-05-05 08:12 41.35734 -91.88443 37829 ft 380 kts 266°
2026-05-05 08:12 41.35254 -91.95441 37828 ft 378 kts 267°
2026-05-05 08:13 41.34777 -92.02329 37827 ft 375 kts 267°
2026-05-05 08:13 41.34297 -92.09232 37826 ft 375 kts 267°
2026-05-05 08:14 41.33813 -92.16142 37845 ft 375 kts 267°
2026-05-05 08:14 41.33325 -92.23040 37858 ft 375 kts 267°
2026-05-05 08:15 41.32831 -92.29944 37861 ft 375 kts 267°
2026-05-05 08:15 41.32337 -92.36780 37845 ft 372 kts 267°
2026-05-05 08:16 41.31840 -92.43605 37886 ft 369 kts 267°
2026-05-05 08:16 41.31343 -92.50394 37888 ft 368 kts 267°
2026-05-05 08:17 41.30843 -92.57172 37886 ft 368 kts 267°
2026-05-05 08:17 41.30342 -92.63908 37880 ft 368 kts 267°
2026-05-05 08:18 41.29834 -92.70685 37874 ft 368 kts 267°
2026-05-05 08:18 41.29322 -92.77424 37869 ft 365 kts 267°
2026-05-05 08:19 41.28810 -92.84135 37873 ft 365 kts 267°
2026-05-05 08:19 41.28299 -92.90805 37875 ft 365 kts 267°
2026-05-05 08:20 41.27780 -92.97512 37868 ft 365 kts 267°
2026-05-05 08:20 41.27256 -93.04229 37869 ft 365 kts 267°
2026-05-05 08:21 41.26728 -93.10922 37867 ft 363 kts 267°
2026-05-05 08:21 41.26204 -93.17534 37869 ft 362 kts 267°
2026-05-05 08:22 41.25674 -93.24190 37869 ft 362 kts 267°
2026-05-05 08:22 41.25140 -93.30832 37867 ft 362 kts 267°
2026-05-05 08:23 41.24602 -93.37478 37865 ft 362 kts 267°
2026-05-05 08:23 41.24064 -93.44076 37864 ft 362 kts 267°
2026-05-05 08:24 41.23518 -93.50724 37863 ft 362 kts 266°
2026-05-05 08:24 41.22968 -93.57364 37863 ft 362 kts 266°
2026-05-05 08:25 41.22415 -93.64008 37863 ft 362 kts 266°
2026-05-05 08:25 41.21861 -93.70603 37863 ft 362 kts 266°
2026-05-05 08:26 41.21301 -93.77238 37862 ft 362 kts 266°
2026-05-05 08:26 41.20736 -93.83868 37860 ft 361 kts 266°
2026-05-05 08:27 41.20169 -93.90477 37860 ft 359 kts 266°
2026-05-05 08:27 41.19605 -93.97025 37861 ft 359 kts 266°
2026-05-05 08:28 41.19033 -94.03615 37860 ft 359 kts 266°
2026-05-05 08:28 41.18457 -94.10205 37862 ft 359 kts 266°
2026-05-05 08:29 41.17877 -94.16793 37864 ft 359 kts 266°
2026-05-05 08:30 41.17004 -94.26626 37867 ft 358 kts 266°
2026-05-05 08:30 41.16417 -94.33185 37877 ft 358 kts 266°
2026-05-05 08:31 41.15827 -94.39745 37878 ft 358 kts 266°
2026-05-05 08:31 41.15233 -94.46302 37857 ft 358 kts 266°
2026-05-05 08:32 41.14639 -94.52816 37866 ft 358 kts 266°
2026-05-05 08:32 41.14037 -94.59378 37856 ft 358 kts 266°
2026-05-05 08:33 41.13431 -94.65931 37853 ft 357 kts 266°
2026-05-05 08:33 41.12824 -94.72464 37863 ft 357 kts 266°
2026-05-05 08:34 41.12216 -94.78964 37868 ft 357 kts 266°
2026-05-05 08:34 41.11601 -94.85498 37862 ft 357 kts 266°
2026-05-05 08:35 41.10982 -94.92033 37860 ft 357 kts 266°
2026-05-05 08:35 41.10359 -94.98565 37874 ft 357 kts 265°
2026-05-05 08:36 41.09736 -95.05060 37877 ft 357 kts 265°
2026-05-05 08:36 41.09106 -95.11586 37867 ft 357 kts 265°
2026-05-05 08:37 41.08472 -95.18116 37885 ft 357 kts 265°
2026-05-05 08:37 41.07836 -95.24639 37887 ft 357 kts 265°
2026-05-05 08:38 41.07200 -95.31119 37867 ft 357 kts 265°
2026-05-05 08:38 41.06554 -95.37646 37881 ft 357 kts 265°
2026-05-05 08:39 41.05906 -95.44162 37876 ft 357 kts 265°
2026-05-05 08:39 41.05255 -95.50678 37883 ft 357 kts 265°
2026-05-05 08:40 41.04605 -95.57146 37867 ft 357 kts 265°
2026-05-05 08:40 41.03946 -95.63653 37874 ft 357 kts 265°
2026-05-05 08:41 41.03283 -95.70166 37871 ft 357 kts 265°
2026-05-05 08:41 41.02619 -95.76671 37901 ft 357 kts 265°
2026-05-05 08:42 41.01950 -95.83173 37908 ft 356 kts 265°
2026-05-05 08:42 41.01282 -95.89632 37904 ft 356 kts 265°
2026-05-05 08:43 41.00606 -95.96130 37906 ft 356 kts 264°
2026-05-05 08:43 40.99926 -96.02629 37903 ft 356 kts 264°
2026-05-05 08:44 40.99243 -96.09122 37888 ft 356 kts 264°
2026-05-05 08:44 40.98561 -96.15567 37901 ft 355 kts 264°
2026-05-05 08:45 40.97873 -96.22026 37898 ft 354 kts 264°
2026-05-05 08:45 40.97184 -96.28478 37896 ft 354 kts 264°
2026-05-05 08:46 40.96490 -96.34937 37894 ft 355 kts 264°
2026-05-05 08:46 40.95797 -96.41350 37896 ft 355 kts 264°
2026-05-05 08:47 40.95095 -96.47802 37885 ft 354 kts 264°
2026-05-05 08:47 40.94393 -96.54211 37892 ft 348 kts 264°
2026-05-05 08:48 40.93702 -96.60473 37918 ft 342 kts 264°
2026-05-05 08:48 40.93022 -96.66651 37925 ft 342 kts 264°
2026-05-05 08:49 40.92336 -96.72867 37923 ft 342 kts 264°
2026-05-05 08:49 40.91704 -96.79089 37924 ft 341 kts 265°
2026-05-05 08:50 40.91115 -96.85311 37920 ft 341 kts 265°
2026-05-05 08:50 40.90527 -96.91514 37922 ft 339 kts 265°
2026-05-05 08:51 40.89937 -96.97650 37921 ft 339 kts 265°
2026-05-05 08:51 40.89339 -97.03818 37916 ft 338 kts 265°
2026-05-05 08:52 40.88738 -97.09991 37909 ft 338 kts 265°
2026-05-05 08:52 40.88135 -97.16153 37908 ft 338 kts 265°
2026-05-05 08:53 40.87530 -97.22282 37904 ft 338 kts 265°
2026-05-05 08:53 40.86917 -97.28445 37902 ft 338 kts 265°
2026-05-05 08:54 40.86301 -97.34603 37906 ft 338 kts 265°
2026-05-05 08:54 40.85681 -97.40762 37905 ft 338 kts 264°
2026-05-05 08:55 40.85063 -97.46875 37907 ft 338 kts 264°
2026-05-05 08:55 40.84439 -97.53026 37925 ft 338 kts 264°
2026-05-05 08:56 40.83809 -97.59180 37908 ft 338 kts 264°
2026-05-05 08:56 40.83178 -97.65302 37926 ft 334 kts 264°
2026-05-05 08:57 40.82556 -97.71314 37925 ft 332 kts 264°
2026-05-05 08:57 40.81932 -97.77345 37921 ft 332 kts 264°
2026-05-05 08:58 40.81303 -97.83385 37924 ft 332 kts 264°
2026-05-05 08:58 40.80670 -97.89415 37930 ft 332 kts 264°
2026-05-05 08:59 40.80034 -97.95451 37934 ft 332 kts 264°
2026-05-05 08:59 40.79399 -98.01438 37934 ft 331 kts 264°
2026-05-05 09:00 40.78757 -98.07456 37931 ft 331 kts 264°
2026-05-05 09:00 40.78114 -98.13468 37928 ft 331 kts 264°
2026-05-05 09:01 40.77468 -98.19475 37913 ft 331 kts 264°
2026-05-05 09:01 40.76822 -98.25444 37910 ft 331 kts 264°
2026-05-05 09:02 40.76169 -98.31458 37914 ft 331 kts 264°
2026-05-05 09:02 40.75512 -98.37464 37910 ft 330 kts 264°
2026-05-05 09:03 40.74855 -98.43437 37915 ft 328 kts 264°
2026-05-05 09:03 40.74205 -98.49338 37908 ft 327 kts 264°
2026-05-05 09:04 40.73547 -98.55281 37907 ft 328 kts 264°
2026-05-05 09:04 40.72886 -98.61228 37909 ft 328 kts 264°
2026-05-05 09:05 40.72220 -98.67176 37915 ft 328 kts 264°
2026-05-05 09:05 40.71551 -98.73123 37914 ft 328 kts 264°
2026-05-05 09:06 40.70884 -98.79018 37920 ft 327 kts 264°
2026-05-05 09:06 40.70212 -98.84935 37923 ft 326 kts 264°
2026-05-05 09:07 40.69538 -98.90852 37925 ft 327 kts 264°
2026-05-05 09:07 40.68864 -98.96734 37925 ft 327 kts 264°
2026-05-05 09:08 40.68184 -99.02650 37926 ft 327 kts 263°
2026-05-05 09:08 40.67499 -99.08566 37925 ft 327 kts 263°
2026-05-05 09:09 40.66812 -99.14483 37921 ft 327 kts 263°
2026-05-05 09:09 40.66122 -99.20391 37920 ft 326 kts 263°
2026-05-05 09:10 40.65434 -99.26261 37918 ft 326 kts 263°
2026-05-05 09:10 40.64739 -99.32167 37913 ft 327 kts 263°
2026-05-05 09:11 40.64040 -99.38076 37910 ft 327 kts 263°
2026-05-05 09:11 40.63337 -99.43990 37908 ft 327 kts 263°
2026-05-05 09:12 40.62632 -99.49898 37909 ft 327 kts 263°
2026-05-05 09:12 40.61927 -99.55778 37907 ft 327 kts 263°
2026-05-05 09:13 40.61214 -99.61696 37906 ft 327 kts 263°
2026-05-05 09:13 40.60497 -99.67617 37906 ft 328 kts 263°
2026-05-05 09:14 40.59778 -99.73537 37907 ft 328 kts 263°
2026-05-05 09:14 40.59060 -99.79421 37907 ft 328 kts 263°
2026-05-05 09:15 40.58335 -99.85335 37902 ft 328 kts 262°
2026-05-05 09:15 40.57605 -99.91265 37911 ft 329 kts 262°
2026-05-05 09:16 40.56869 -99.97214 37917 ft 329 kts 262°
2026-05-05 09:16 40.56136 -100.03116 37922 ft 330 kts 262°
2026-05-05 09:17 40.55394 -100.09063 37926 ft 330 kts 262°
2026-05-05 09:17 40.54649 -100.15009 37928 ft 330 kts 262°
2026-05-05 09:18 40.53901 -100.20959 37926 ft 330 kts 262°
2026-05-05 09:18 40.53154 -100.26877 37926 ft 330 kts 262°
2026-05-05 09:19 40.52398 -100.32833 37910 ft 331 kts 262°
2026-05-05 09:19 40.51637 -100.38802 37909 ft 331 kts 261°
2026-05-05 09:20 40.50873 -100.44772 37920 ft 331 kts 261°
2026-05-05 09:20 40.50110 -100.50706 37924 ft 331 kts 261°
2026-05-05 09:21 40.49340 -100.56673 37925 ft 331 kts 261°
2026-05-05 09:21 40.48566 -100.62645 37929 ft 332 kts 261°
2026-05-05 09:22 40.47786 -100.68637 37930 ft 333 kts 261°
2026-05-05 09:22 40.47002 -100.74633 37933 ft 333 kts 261°
2026-05-05 09:23 40.46220 -100.80590 37929 ft 333 kts 261°
2026-05-05 09:23 40.45430 -100.86586 37924 ft 334 kts 261°
2026-05-05 09:24 40.44635 -100.92595 37924 ft 334 kts 261°
2026-05-05 09:24 40.43838 -100.98595 37921 ft 334 kts 261°
2026-05-05 09:25 40.43043 -101.04555 37925 ft 334 kts 261°
2026-05-05 09:25 40.42239 -101.10554 37926 ft 334 kts 261°
2026-05-05 09:26 40.41432 -101.16547 37926 ft 331 kts 261°
2026-05-05 09:26 40.40638 -101.22441 37925 ft 326 kts 261°
2026-05-05 09:27 40.39850 -101.28265 37946 ft 326 kts 261°
2026-05-05 09:27 40.39054 -101.34131 37954 ft 328 kts 260°
2026-05-05 09:28 40.38248 -101.40033 37966 ft 329 kts 260°
2026-05-05 09:28 40.37435 -101.45949 37968 ft 330 kts 260°
2026-05-05 09:29 40.36620 -101.51865 37978 ft 330 kts 260°
2026-05-05 09:29 40.35806 -101.57746 37972 ft 330 kts 260°
2026-05-05 09:30 40.34985 -101.63662 37972 ft 330 kts 260°
2026-05-05 09:30 40.34299 -101.68583 37949 ft 330 kts 260°
2026-05-05 09:31 40.33328 -101.75527 37968 ft 333 kts 260°
2026-05-05 09:31 40.32490 -101.81495 37962 ft 333 kts 259°
2026-05-05 09:32 40.31652 -101.87431 37953 ft 333 kts 259°
2026-05-05 09:32 40.30949 -101.92395 37945 ft 334 kts 259°
2026-05-05 09:33 40.29955 -101.99386 37936 ft 334 kts 259°
2026-05-05 09:33 40.29247 -102.04353 37921 ft 334 kts 259°
2026-05-05 09:34 40.28250 -102.11317 37933 ft 336 kts 259°
2026-05-05 09:34 40.27385 -102.17338 37933 ft 337 kts 259°
2026-05-05 09:35 40.26661 -102.22350 37930 ft 337 kts 259°
2026-05-05 09:35 40.25350 -102.31389 37923 ft 337 kts 259°
2026-05-05 09:36 40.24473 -102.37408 37917 ft 336 kts 259°
2026-05-05 09:36 40.23601 -102.43377 37916 ft 336 kts 258°
2026-05-05 09:37 40.22719 -102.49384 37916 ft 336 kts 258°
2026-05-05 09:37 40.21692 -102.56351 37916 ft 335 kts 258°
2026-05-05 09:38 40.20949 -102.61371 37917 ft 335 kts 258°
2026-05-05 09:38 40.20067 -102.67319 37911 ft 335 kts 258°
2026-05-05 09:39 40.19174 -102.73311 37911 ft 336 kts 258°
2026-05-05 09:39 40.18279 -102.79301 37909 ft 336 kts 258°
2026-05-05 09:40 40.17378 -102.85304 37911 ft 337 kts 258°
2026-05-05 09:40 40.16479 -102.91271 37911 ft 337 kts 258°
2026-05-05 09:41 40.15571 -102.97279 37911 ft 337 kts 258°
2026-05-05 09:41 40.14659 -103.03291 37911 ft 337 kts 258°
2026-05-05 09:42 40.13742 -103.09307 37908 ft 337 kts 258°
2026-05-05 09:42 40.12822 -103.15323 37985 ft 338 kts 258°
2026-05-05 09:43 40.11904 -103.21314 37989 ft 340 kts 258°
2026-05-05 09:43 40.10972 -103.27367 37989 ft 340 kts 258°
2026-05-05 09:44 40.10036 -103.33419 37981 ft 340 kts 258°
2026-05-05 09:44 40.09097 -103.39473 37968 ft 340 kts 258°
2026-05-05 09:45 40.08162 -103.45482 37951 ft 340 kts 258°
2026-05-05 09:45 40.07216 -103.51538 37877 ft 341 kts 257°
2026-05-05 09:46 40.06264 -103.57608 37885 ft 342 kts 257°
2026-05-05 09:46 40.05306 -103.63697 37887 ft 342 kts 257°
2026-05-05 09:47 40.04351 -103.69743 37875 ft 342 kts 257°
2026-05-05 09:47 40.03387 -103.75823 37875 ft 342 kts 257°
2026-05-05 09:48 40.02418 -103.81911 37865 ft 342 kts 257°
2026-05-05 09:48 40.01448 -103.87989 37857 ft 343 kts 257°
2026-05-05 09:49 40.00478 -103.94047 37855 ft 344 kts 257°
2026-05-05 09:49 39.99496 -104.00156 37841 ft 344 kts 257°
2026-05-05 09:50 39.98510 -104.06266 37854 ft 344 kts 257°
2026-05-05 09:50 39.97521 -104.12376 37829 ft 344 kts 257°
2026-05-05 09:51 39.96535 -104.18443 37843 ft 344 kts 257°
2026-05-05 09:51 39.95540 -104.24545 37865 ft 345 kts 257°
2026-05-05 09:52 39.94539 -104.30666 37885 ft 346 kts 257°
2026-05-05 09:52 39.93533 -104.36790 37915 ft 346 kts 257°
2026-05-05 09:53 39.92529 -104.42883 37929 ft 346 kts 257°
2026-05-05 09:53 39.91516 -104.49006 37949 ft 346 kts 257°
2026-05-05 09:54 39.90500 -104.55134 37958 ft 346 kts 257°
2026-05-05 09:54 39.89520 -104.61273 37964 ft 346 kts 260°
2026-05-05 09:55 39.89074 -104.67518 37954 ft 347 kts 264°
2026-05-05 09:55 39.88796 -104.73734 37963 ft 346 kts 264°
2026-05-05 09:56 39.88546 -104.79995 37954 ft 346 kts 264°
2026-05-05 09:56 39.88290 -104.86246 37931 ft 346 kts 264°
2026-05-05 09:57 39.88022 -104.92501 37905 ft 346 kts 264°
2026-05-05 09:57 39.87750 -104.98715 37886 ft 346 kts 264°
2026-05-05 09:58 39.87612 -105.01845 37989 ft 346 kts 264°
2026-05-05 09:58 39.87472 -105.04974 37986 ft 346 kts 264°
2026-05-05 09:58 39.87192 -105.11221 37994 ft 346 kts 264°
2026-05-05 09:59 39.86909 -105.17463 37989 ft 345 kts 264°
2026-05-05 09:59 39.86625 -105.23664 37983 ft 345 kts 264°
2026-05-05 10:00 39.86335 -105.29901 37937 ft 345 kts 264°
2026-05-05 10:00 39.86043 -105.36140 37923 ft 347 kts 264°
2026-05-05 10:01 39.85744 -105.42424 37894 ft 349 kts 263°
2026-05-05 10:01 39.85438 -105.48725 37866 ft 348 kts 264°
2026-05-05 10:02 39.85135 -105.54982 37840 ft 349 kts 263°
2026-05-05 10:02 39.84826 -105.61277 37826 ft 348 kts 263°
2026-05-05 10:03 39.84521 -105.67571 37791 ft 350 kts 263°
2026-05-05 10:03 39.84201 -105.73922 37794 ft 353 kts 263°
2026-05-05 10:04 39.83876 -105.80237 37792 ft 353 kts 263°
2026-05-05 10:04 39.83548 -105.86612 37784 ft 353 kts 263°
2026-05-05 10:05 39.83218 -105.92968 37787 ft 351 kts 263°
2026-05-05 10:05 39.82875 -105.99274 37796 ft 350 kts 263°
2026-05-05 10:06 39.82549 -106.05567 37790 ft 354 kts 262°
2026-05-05 10:06 39.82212 -106.11968 37814 ft 355 kts 262°
2026-05-05 10:07 39.81867 -106.18380 37814 ft 356 kts 262°
2026-05-05 10:07 39.81516 -106.24793 37828 ft 355 kts 262°
2026-05-05 10:08 39.81163 -106.31161 37828 ft 355 kts 262°
2026-05-05 10:08 39.80806 -106.37573 37849 ft 356 kts 262°
2026-05-05 10:09 39.80441 -106.44035 37852 ft 360 kts 262°
2026-05-05 10:09 39.80071 -106.50523 37871 ft 360 kts 262°
2026-05-05 10:10 39.79701 -106.56963 37868 ft 360 kts 262°
2026-05-05 10:10 39.79322 -106.63448 37895 ft 360 kts 262°
2026-05-05 10:11 39.78939 -106.69955 37881 ft 361 kts 262°
2026-05-05 10:11 39.78558 -106.76474 37894 ft 363 kts 262°
2026-05-05 10:12 39.78167 -106.83044 37904 ft 365 kts 262°
2026-05-05 10:12 39.77773 -106.89586 37975 ft 365 kts 262°
2026-05-05 10:13 39.77374 -106.96152 37975 ft 364 kts 262°
2026-05-05 10:13 39.76973 -107.02698 37967 ft 363 kts 262°
2026-05-05 10:14 39.76565 -107.09256 37958 ft 364 kts 261°
2026-05-05 10:14 39.76157 -107.15778 37944 ft 365 kts 261°
2026-05-05 10:15 39.75742 -107.22360 37932 ft 366 kts 261°
2026-05-05 10:15 39.75322 -107.28949 37900 ft 365 kts 261°
2026-05-05 10:16 39.74902 -107.35511 37862 ft 364 kts 261°
2026-05-05 10:16 39.74480 -107.42034 37860 ft 365 kts 261°
2026-05-05 10:17 39.74048 -107.48619 37864 ft 367 kts 261°
2026-05-05 10:17 39.73611 -107.55228 37867 ft 367 kts 261°
2026-05-05 10:18 39.73169 -107.61840 37867 ft 367 kts 261°
2026-05-05 10:18 39.72726 -107.68450 37881 ft 367 kts 261°
2026-05-05 10:19 39.72282 -107.75024 37870 ft 368 kts 261°
2026-05-05 10:19 39.71831 -107.81660 37814 ft 370 kts 261°
2026-05-05 10:20 39.71372 -107.88332 37799 ft 371 kts 261°
2026-05-05 10:20 39.70910 -107.94976 37792 ft 369 kts 260°
2026-05-05 10:21 39.70446 -108.01558 37789 ft 369 kts 260°
2026-05-05 10:21 39.69981 -108.08183 37801 ft 369 kts 260°
2026-05-05 10:22 39.69506 -108.14837 37780 ft 372 kts 261°
2026-05-05 10:22 39.69027 -108.21533 37779 ft 373 kts 261°
2026-05-05 10:23 39.68547 -108.28187 37773 ft 373 kts 261°
2026-05-05 10:23 39.68057 -108.34894 37768 ft 373 kts 261°
2026-05-05 10:24 39.67565 -108.41593 37770 ft 373 kts 261°
2026-05-05 10:24 39.67068 -108.48300 37760 ft 373 kts 260°
2026-05-05 10:25 39.66567 -108.55004 37760 ft 373 kts 260°
2026-05-05 10:25 39.66067 -108.61659 37760 ft 373 kts 260°
2026-05-05 10:26 39.65557 -108.68366 37759 ft 374 kts 260°
2026-05-05 10:26 39.65043 -108.75075 37763 ft 374 kts 260°
2026-05-05 10:27 39.64527 -108.81784 37747 ft 373 kts 259°
2026-05-05 10:27 39.64011 -108.88462 37740 ft 376 kts 259°
2026-05-05 10:28 39.63483 -108.95220 37751 ft 377 kts 259°
2026-05-05 10:28 39.62951 -109.01975 37749 ft 377 kts 259°
2026-05-05 10:29 39.62414 -109.08731 37747 ft 376 kts 259°
2026-05-05 10:29 39.61874 -109.15490 37744 ft 377 kts 259°
2026-05-05 10:30 39.61332 -109.22233 37751 ft 379 kts 259°
2026-05-05 10:30 39.60780 -109.29038 37745 ft 379 kts 259°
2026-05-05 10:31 39.60221 -109.35838 37746 ft 379 kts 259°
2026-05-05 10:31 39.59658 -109.42634 37747 ft 380 kts 259°
2026-05-05 10:32 39.59092 -109.49442 37747 ft 381 kts 259°
2026-05-05 10:32 39.58524 -109.56244 37749 ft 383 kts 259°
2026-05-05 10:33 39.57947 -109.63118 37747 ft 384 kts 259°
2026-05-05 10:33 39.57365 -109.69993 37751 ft 384 kts 258°
2026-05-05 10:34 39.56778 -109.76870 37745 ft 384 kts 258°
2026-05-05 10:34 39.56191 -109.83689 37757 ft 384 kts 258°
2026-05-05 10:35 39.55594 -109.90583 37753 ft 386 kts 258°
2026-05-05 10:35 39.54992 -109.97496 37754 ft 386 kts 258°
2026-05-05 10:36 39.54384 -110.04413 37753 ft 386 kts 258°
2026-05-05 10:36 39.53779 -110.11278 37759 ft 386 kts 258°
2026-05-05 10:37 39.53165 -110.18191 37761 ft 388 kts 258°
2026-05-05 10:37 39.52540 -110.25162 37763 ft 391 kts 257°
2026-05-05 10:38 39.51908 -110.32148 37761 ft 390 kts 258°
2026-05-05 10:38 39.51274 -110.39130 37764 ft 390 kts 257°
2026-05-05 10:39 39.50640 -110.46066 37782 ft 390 kts 258°
2026-05-05 10:39 39.49995 -110.53077 37776 ft 396 kts 257°
2026-05-05 10:40 39.49335 -110.60185 37773 ft 398 kts 257°
2026-05-05 10:40 39.49004 -110.63742 37877 ft 399 kts 257°
2026-05-05 10:40 39.48676 -110.67262 37880 ft 398 kts 257°
2026-05-05 10:41 39.48009 -110.74373 37885 ft 398 kts 257°
2026-05-05 10:41 39.47335 -110.81497 37884 ft 399 kts 257°
2026-05-05 10:42 39.46311 -110.92231 37854 ft 403 kts 257°
2026-05-05 10:43 39.45624 -110.99378 37837 ft 403 kts 257°
2026-05-05 10:43 39.44929 -111.06571 37817 ft 403 kts 257°
2026-05-05 10:44 39.44229 -111.13769 37802 ft 403 kts 257°
2026-05-05 10:44 39.43521 -111.20980 37807 ft 406 kts 257°
2026-05-05 10:45 39.42809 -111.28189 37805 ft 408 kts 257°
2026-05-05 10:45 39.42085 -111.35483 37809 ft 410 kts 257°
2026-05-05 10:46 39.41356 -111.42785 37810 ft 409 kts 257°
2026-05-05 10:46 39.40625 -111.50070 37802 ft 408 kts 257°
2026-05-05 10:47 39.39889 -111.57345 37804 ft 408 kts 257°
2026-05-05 10:47 39.39152 -111.64573 37802 ft 408 kts 257°
2026-05-05 10:48 39.38405 -111.71856 37803 ft 408 kts 257°
2026-05-05 10:48 39.37654 -111.79131 37805 ft 408 kts 257°
2026-05-05 10:49 39.36899 -111.86409 37799 ft 409 kts 256°
2026-05-05 10:49 39.36144 -111.93646 37793 ft 409 kts 256°
2026-05-05 10:50 39.35380 -112.00924 37796 ft 409 kts 256°
2026-05-05 10:50 39.34610 -112.08202 37793 ft 409 kts 256°
2026-05-05 10:51 39.33835 -112.15481 37800 ft 410 kts 257°
2026-05-05 10:51 39.33054 -112.22769 37794 ft 415 kts 257°
2026-05-05 10:52 39.32261 -112.30150 37793 ft 414 kts 257°
2026-05-05 10:52 39.31466 -112.37502 37788 ft 413 kts 257°
2026-05-05 10:53 39.30667 -112.44839 37786 ft 413 kts 256°
2026-05-05 10:53 39.29862 -112.52189 37785 ft 415 kts 257°
2026-05-05 10:54 39.29058 -112.59538 37787 ft 417 kts 257°
2026-05-05 10:54 39.28246 -112.66953 37785 ft 417 kts 257°
2026-05-05 10:55 39.27430 -112.74362 37792 ft 417 kts 257°
2026-05-05 10:55 39.26606 -112.81796 37784 ft 422 kts 257°
2026-05-05 10:56 39.25764 -112.89333 37783 ft 426 kts 257°
2026-05-05 10:56 39.24919 -112.96856 37785 ft 426 kts 257°
2026-05-05 10:57 39.24065 -113.04423 37790 ft 426 kts 257°
2026-05-05 10:57 39.23206 -113.11985 37799 ft 426 kts 257°
2026-05-05 10:58 39.22338 -113.19582 37786 ft 430 kts 257°
2026-05-05 10:58 39.21464 -113.27177 37788 ft 432 kts 257°
2026-05-05 10:59 39.20579 -113.34832 37787 ft 432 kts 257°
2026-05-05 10:59 39.19689 -113.42481 37798 ft 432 kts 257°
2026-05-05 11:00 39.18793 -113.50149 37801 ft 434 kts 257°
2026-05-05 11:00 39.17892 -113.57797 37785 ft 435 kts 257°
2026-05-05 11:01 39.16980 -113.65496 37809 ft 435 kts 257°
2026-05-05 11:01 39.16063 -113.73198 37792 ft 435 kts 257°
2026-05-05 11:02 39.15139 -113.80914 37800 ft 437 kts 257°
2026-05-05 11:02 39.14203 -113.88679 37802 ft 440 kts 257°
2026-05-05 11:03 39.13265 -113.96414 37802 ft 440 kts 257°
2026-05-05 11:03 39.12317 -114.04197 37812 ft 440 kts 257°
2026-05-05 11:04 39.11362 -114.11988 37816 ft 441 kts 258°
2026-05-05 11:04 39.10396 -114.19822 37814 ft 444 kts 257°
2026-05-05 11:05 39.09429 -114.27624 37815 ft 444 kts 257°
2026-05-05 11:05 39.08451 -114.35470 37816 ft 444 kts 257°
2026-05-05 11:06 39.07467 -114.43316 37824 ft 445 kts 257°
2026-05-05 11:06 39.06474 -114.51195 37827 ft 447 kts 257°
2026-05-05 11:07 39.05472 -114.59091 37846 ft 447 kts 257°
2026-05-05 11:07 39.04472 -114.66935 37860 ft 447 kts 257°
2026-05-05 11:08 39.03460 -114.74831 37866 ft 447 kts 257°
2026-05-05 11:08 39.02443 -114.82717 37863 ft 447 kts 257°
2026-05-05 11:09 39.01421 -114.90606 37854 ft 447 kts 257°
2026-05-05 11:09 39.00399 -114.98450 37843 ft 449 kts 257°
2026-05-05 11:10 38.99359 -115.06386 37826 ft 452 kts 258°
2026-05-05 11:10 38.98307 -115.14364 37827 ft 453 kts 258°
2026-05-05 11:11 38.97248 -115.22359 37822 ft 454 kts 258°
2026-05-05 11:11 38.96184 -115.30343 37828 ft 453 kts 258°
2026-05-05 11:12 38.95123 -115.38270 37829 ft 454 kts 258°
2026-05-05 11:12 38.94046 -115.46272 37827 ft 455 kts 257°
2026-05-05 11:13 38.92963 -115.54269 37828 ft 455 kts 258°
2026-05-05 11:13 38.91874 -115.62271 37828 ft 455 kts 258°
2026-05-05 11:14 38.90785 -115.70227 37829 ft 456 kts 258°
2026-05-05 11:14 38.89681 -115.78257 37826 ft 457 kts 258°
2026-05-05 11:15 38.88569 -115.86297 37826 ft 458 kts 258°
2026-05-05 11:15 38.87451 -115.94338 37829 ft 458 kts 258°
2026-05-05 11:16 38.86328 -116.02380 37832 ft 459 kts 258°
2026-05-05 11:16 38.85202 -116.10393 37832 ft 460 kts 258°
2026-05-05 11:17 38.84062 -116.18469 37834 ft 460 kts 258°
2026-05-05 11:17 38.82916 -116.26542 37841 ft 460 kts 258°
2026-05-05 11:18 38.81762 -116.34632 37837 ft 462 kts 258°
2026-05-05 11:18 38.80606 -116.42690 37837 ft 463 kts 258°
2026-05-05 11:19 38.79435 -116.50812 37842 ft 463 kts 258°
2026-05-05 11:19 38.78260 -116.58926 37838 ft 463 kts 258°
2026-05-05 11:20 38.77076 -116.67056 37834 ft 464 kts 258°
2026-05-05 11:20 38.75885 -116.75192 37835 ft 465 kts 258°
2026-05-05 11:21 38.74697 -116.83271 37836 ft 465 kts 258°
2026-05-05 11:21 38.73494 -116.91408 37843 ft 465 kts 258°
2026-05-05 11:22 38.72281 -116.99570 37840 ft 467 kts 258°
2026-05-05 11:22 38.71063 -117.07731 37841 ft 468 kts 258°
2026-05-05 11:23 38.69841 -117.15880 37843 ft 470 kts 258°
2026-05-05 11:23 38.68600 -117.24104 37850 ft 471 kts 258°
2026-05-05 11:24 38.67349 -117.32351 37845 ft 472 kts 258°
2026-05-05 11:24 38.66092 -117.40598 37845 ft 472 kts 258°
2026-05-05 11:25 38.64831 -117.48837 37850 ft 472 kts 258°
2026-05-05 11:25 38.63570 -117.57035 37849 ft 474 kts 258°
2026-05-05 11:26 38.62290 -117.65320 37853 ft 475 kts 258°
2026-05-05 11:26 38.61003 -117.73605 37855 ft 475 kts 258°
2026-05-05 11:27 38.59711 -117.81879 37854 ft 475 kts 258°
2026-05-05 11:27 38.58421 -117.90099 37854 ft 475 kts 258°
2026-05-05 11:28 38.57116 -117.98379 37856 ft 475 kts 258°
2026-05-05 11:28 38.55767 -118.06637 37853 ft 475 kts 257°
2026-05-05 11:29 38.54280 -118.14873 37848 ft 477 kts 256°
2026-05-05 11:29 38.52764 -118.23080 37870 ft 478 kts 256°
2026-05-05 11:30 38.51241 -118.31343 37886 ft 478 kts 256°
2026-05-05 11:30 38.49723 -118.39608 37899 ft 478 kts 257°
2026-05-05 11:31 38.48200 -118.47882 37916 ft 479 kts 256°
2026-05-05 11:31 38.46680 -118.56108 37921 ft 480 kts 256°
2026-05-05 11:32 38.45141 -118.64393 37922 ft 480 kts 256°
2026-05-05 11:32 38.43598 -118.72669 37915 ft 480 kts 256°
2026-05-05 11:33 38.42045 -118.80964 37904 ft 481 kts 256°
2026-05-05 11:33 38.40496 -118.89199 37892 ft 481 kts 256°
2026-05-05 11:34 38.38929 -118.97493 37879 ft 481 kts 256°
2026-05-05 11:34 38.37354 -119.05801 37870 ft 483 kts 256°
2026-05-05 11:35 38.35767 -119.14133 37873 ft 484 kts 256°
2026-05-05 11:35 38.34174 -119.22464 37876 ft 484 kts 256°
2026-05-05 11:36 38.32584 -119.30739 37875 ft 485 kts 256°
2026-05-05 11:36 38.30976 -119.39086 37885 ft 486 kts 256°
2026-05-05 11:37 38.29355 -119.47463 37889 ft 488 kts 256°
2026-05-05 11:37 38.27720 -119.55864 37901 ft 489 kts 256°
2026-05-05 11:38 38.26092 -119.64206 37915 ft 489 kts 256°
2026-05-05 11:38 38.24443 -119.72625 37942 ft 490 kts 256°
2026-05-05 11:39 38.22788 -119.81033 37942 ft 490 kts 256°
2026-05-05 11:39 38.21127 -119.89433 37969 ft 491 kts 256°
2026-05-05 11:40 38.19468 -119.97798 37979 ft 491 kts 256°
2026-05-05 11:40 38.17791 -120.06219 37987 ft 492 kts 256°
2026-05-05 11:41 38.16106 -120.14639 37987 ft 492 kts 256°
2026-05-05 11:41 38.14415 -120.23070 37999 ft 493 kts 256°
2026-05-05 11:42 38.12730 -120.31441 38012 ft 493 kts 256°
2026-05-05 11:42 38.11025 -120.39871 38015 ft 493 kts 256°
2026-05-05 11:43 38.09313 -120.48296 38022 ft 493 kts 256°
2026-05-05 11:43 38.07593 -120.56725 38026 ft 493 kts 256°
2026-05-05 11:44 38.05877 -120.65096 38027 ft 493 kts 256°
2026-05-05 11:44 38.04145 -120.73521 38026 ft 493 kts 256°
2026-05-05 11:45 38.02406 -120.81943 38026 ft 494 kts 256°
2026-05-05 11:45 38.00672 -120.90304 38026 ft 493 kts 256°
2026-05-05 11:46 37.98923 -120.98713 38027 ft 494 kts 256°
2026-05-05 11:46 37.97163 -121.07139 38029 ft 495 kts 256°
2026-05-05 11:47 37.95392 -121.15583 38034 ft 496 kts 256°
2026-05-05 11:47 37.93625 -121.23971 38036 ft 496 kts 256°
2026-05-05 11:48 37.90943 -121.36651 38036 ft 498 kts 256°
2026-05-05 11:48 37.89144 -121.45117 38035 ft 498 kts 256°
2026-05-05 11:49 37.87337 -121.53581 38031 ft 498 kts 256°
2026-05-05 11:49 37.85536 -121.61991 38033 ft 499 kts 256°
2026-05-05 11:50 37.83714 -121.70464 38036 ft 499 kts 256°
2026-05-05 11:50 37.81885 -121.78933 38038 ft 499 kts 256°
2026-05-05 11:51 37.80050 -121.87401 38031 ft 500 kts 255°
2026-05-05 11:51 37.78215 -121.95844 38040 ft 503 kts 255°
2026-05-05 11:52 37.76353 -122.04371 38048 ft 503 kts 255°
2026-05-05 11:52 37.74484 -122.12898 38063 ft 503 kts 255°
2026-05-05 11:53 37.72610 -122.21417 38061 ft 504 kts 255°
2026-05-05 11:53 37.70605 -122.29848 38060 ft 504 kts 253°
2026-05-05 11:54 37.68482 -122.38289 38039 ft 505 kts 252°
2026-05-05 11:54 37.66349 -122.46742 38051 ft 506 kts 252°
2026-05-05 11:55 37.64225 -122.55200 38061 ft 506 kts 252°
2026-05-05 11:55 37.62099 -122.63669 38057 ft 506 kts 252°
2026-05-05 11:56 37.59986 -122.72059 38054 ft 505 kts 252°
2026-05-05 11:56 37.57857 -122.80488 38049 ft 504 kts 252°
2026-05-05 11:57 37.55723 -122.88907 38042 ft 504 kts 252°
2026-05-05 11:57 37.53583 -122.97320 38027 ft 503 kts 252°
2026-05-05 11:58 37.51458 -123.05645 38039 ft 502 kts 252°
2026-05-05 11:58 37.49313 -123.14023 38038 ft 502 kts 252°
2026-05-05 11:59 37.47164 -123.22383 38039 ft 502 kts 252°
2026-05-05 11:59 37.45014 -123.30724 38043 ft 500 kts 252°
2026-05-05 12:00 37.42874 -123.38996 38045 ft 501 kts 252°
2026-05-05 12:00 37.40712 -123.47330 38045 ft 501 kts 252°
2026-05-05 12:01 37.38546 -123.55651 38045 ft 501 kts 252°
2026-05-05 12:01 37.36373 -123.63969 38044 ft 501 kts 252°
2026-05-05 12:02 37.34195 -123.72281 38045 ft 500 kts 252°
2026-05-05 12:02 37.32027 -123.80525 38048 ft 500 kts 252°
2026-05-05 12:03 37.29840 -123.88819 38048 ft 500 kts 252°
2026-05-05 12:03 37.27647 -123.97109 38047 ft 500 kts 252°
2026-05-05 12:04 37.25448 -124.05391 38056 ft 500 kts 252°
2026-05-05 12:04 37.23259 -124.13610 38056 ft 500 kts 252°
2026-05-05 12:05 37.21051 -124.21876 38042 ft 500 kts 252°
2026-05-05 12:05 37.18836 -124.30139 38056 ft 499 kts 252°
2026-05-05 12:06 37.16620 -124.38384 38058 ft 499 kts 251°
2026-05-05 12:06 37.14413 -124.46568 38061 ft 499 kts 251°
2026-05-05 12:07 37.12184 -124.54804 38064 ft 498 kts 251°
2026-05-05 12:07 37.09956 -124.63012 38064 ft 498 kts 251°
2026-05-05 12:08 37.07723 -124.71216 38064 ft 498 kts 251°
2026-05-05 12:08 37.05499 -124.79360 38063 ft 497 kts 251°
2026-05-05 12:09 37.03256 -124.87544 38064 ft 497 kts 251°
2026-05-05 12:09 37.01013 -124.95709 38069 ft 496 kts 251°
2026-05-05 12:10 36.98776 -125.03883 38066 ft 496 kts 251°
2026-05-05 12:10 36.96575 -125.12060 38068 ft 497 kts 251°
2026-05-05 12:11 36.94380 -125.20215 38068 ft 499 kts 251°
2026-05-05 12:11 36.92159 -125.28427 38070 ft 499 kts 251°
2026-05-05 12:12 36.89930 -125.36628 38070 ft 498 kts 251°
2026-05-05 12:12 36.87698 -125.44813 38074 ft 498 kts 251°
2026-05-05 12:13 36.85475 -125.52941 38074 ft 498 kts 251°
2026-05-05 12:13 36.83235 -125.61105 38071 ft 496 kts 251°
2026-05-05 12:14 36.80997 -125.69238 38066 ft 495 kts 251°
2026-05-05 12:14 36.79133 -125.75994 38063 ft 496 kts 251°
2026-05-05 12:15 36.76521 -125.85431 38079 ft 494 kts 251°
2026-05-05 12:15 36.74273 -125.93526 38082 ft 494 kts 251°
2026-05-05 12:16 36.72386 -126.00305 38085 ft 494 kts 251°
2026-05-05 12:16 36.70144 -126.08332 38086 ft 494 kts 251°
2026-05-05 12:17 36.67880 -126.16417 38087 ft 494 kts 251°
2026-05-05 12:17 36.65244 -126.25798 38066 ft 494 kts 250°
2026-05-05 12:18 36.63339 -126.32556 38086 ft 493 kts 250°
2026-05-05 12:18 36.61080 -126.40552 38087 ft 492 kts 250°
2026-05-05 12:19 36.58803 -126.48588 38085 ft 493 kts 250°
2026-05-05 12:19 36.56519 -126.56620 38084 ft 492 kts 250°
2026-05-05 12:20 36.54239 -126.64616 38089 ft 490 kts 250°
2026-05-05 12:20 36.51970 -126.72553 38088 ft 490 kts 250°
2026-05-05 12:21 36.49683 -126.80529 38091 ft 490 kts 250°
2026-05-05 12:21 36.47392 -126.88496 38092 ft 489 kts 250°
2026-05-05 12:22 36.45114 -126.96392 38091 ft 489 kts 250°
2026-05-05 12:22 36.42811 -127.04338 38096 ft 489 kts 250°
2026-05-05 12:23 36.40507 -127.12260 38094 ft 488 kts 250°
2026-05-05 12:23 36.38199 -127.20175 38094 ft 488 kts 250°
2026-05-05 12:24 36.35887 -127.28084 38096 ft 487 kts 250°
2026-05-05 12:24 36.33589 -127.35924 38097 ft 487 kts 250°
2026-05-05 12:25 36.31271 -127.43807 38100 ft 486 kts 250°
2026-05-05 12:25 36.28949 -127.51683 38098 ft 486 kts 250°
2026-05-05 12:26 36.26625 -127.59544 38102 ft 485 kts 250°
2026-05-05 12:26 36.24317 -127.67328 38102 ft 485 kts 250°
2026-05-05 12:27 36.21987 -127.75165 38107 ft 485 kts 250°
2026-05-05 12:27 36.19655 -127.82987 38104 ft 484 kts 250°
2026-05-05 12:28 36.17321 -127.90794 38108 ft 483 kts 250°
2026-05-05 12:28 36.14997 -127.98544 38106 ft 483 kts 250°
2026-05-05 12:29 36.12659 -128.06320 38108 ft 481 kts 250°
2026-05-05 12:29 36.10323 -128.14070 38107 ft 481 kts 250°
2026-05-05 12:30 36.07982 -128.21817 38108 ft 481 kts 250°
2026-05-05 12:30 36.05654 -128.29496 38113 ft 479 kts 250°
2026-05-05 12:31 36.03314 -128.37197 38114 ft 479 kts 250°
2026-05-05 12:31 36.00968 -128.44896 38116 ft 479 kts 249°
2026-05-05 12:32 35.98616 -128.52594 38118 ft 479 kts 249°
2026-05-05 12:32 35.96262 -128.60278 38119 ft 479 kts 249°
2026-05-05 12:33 35.93917 -128.67910 38113 ft 479 kts 249°
2026-05-05 12:33 35.91556 -128.75575 38121 ft 477 kts 249°
2026-05-05 12:34 35.89198 -128.83210 38125 ft 476 kts 249°
2026-05-05 12:34 35.86834 -128.90845 38110 ft 476 kts 249°
2026-05-05 12:35 35.84486 -128.98406 38125 ft 474 kts 249°
2026-05-05 12:35 35.82128 -129.05981 38128 ft 473 kts 249°
2026-05-05 12:36 35.79768 -129.13547 38126 ft 473 kts 249°
2026-05-05 12:36 35.77403 -129.21103 38139 ft 472 kts 249°
2026-05-05 12:37 35.75061 -129.28569 38127 ft 471 kts 249°
2026-05-05 12:37 35.72696 -129.36089 38129 ft 471 kts 250°
2026-05-05 12:38 35.70332 -129.43585 38133 ft 469 kts 250°
2026-05-05 12:38 35.67969 -129.51061 38139 ft 469 kts 250°
2026-05-05 12:39 35.65618 -129.58481 38129 ft 469 kts 250°
2026-05-05 12:39 35.63249 -129.65934 38135 ft 467 kts 250°
2026-05-05 12:40 35.60880 -129.73372 38141 ft 467 kts 250°
2026-05-05 12:40 35.58510 -129.80794 38133 ft 467 kts 250°
2026-05-05 12:41 35.56136 -129.88210 38149 ft 465 kts 250°
2026-05-05 12:41 35.53782 -129.95542 38145 ft 464 kts 250°
2026-05-05 12:42 35.51411 -130.02914 38144 ft 464 kts 250°
2026-05-05 12:42 35.49036 -130.10277 38148 ft 463 kts 250°
2026-05-05 12:43 35.46663 -130.17617 38154 ft 462 kts 250°
2026-05-05 12:43 35.44304 -130.24896 38154 ft 462 kts 250°
2026-05-05 12:44 35.41926 -130.32213 38154 ft 461 kts 250°
2026-05-05 12:44 35.39552 -130.39501 38160 ft 460 kts 250°
2026-05-05 12:45 35.37174 -130.46786 38158 ft 460 kts 250°
2026-05-05 12:45 35.34794 -130.54060 38161 ft 460 kts 250°
2026-05-05 12:46 35.32424 -130.61286 38160 ft 460 kts 250°
2026-05-05 12:46 35.30033 -130.68557 38154 ft 461 kts 250°
2026-05-05 12:47 35.27634 -130.75831 38163 ft 461 kts 250°
2026-05-05 12:47 35.25233 -130.83097 38167 ft 461 kts 250°
2026-05-05 12:48 35.22841 -130.90319 38170 ft 461 kts 250°
2026-05-05 12:48 35.20433 -130.97566 38168 ft 459 kts 250°
2026-05-05 12:49 35.18029 -131.04787 38164 ft 458 kts 250°
2026-05-05 12:49 35.15627 -131.11991 38174 ft 458 kts 250°
2026-05-05 12:50 35.13221 -131.19183 38175 ft 457 kts 250°
2026-05-05 12:50 35.10833 -131.26306 38177 ft 455 kts 250°
2026-05-05 12:51 35.08431 -131.33459 38170 ft 455 kts 250°
2026-05-05 12:51 35.06019 -131.40610 38169 ft 454 kts 250°
2026-05-05 12:52 35.03615 -131.47722 38170 ft 453 kts 250°
2026-05-05 12:52 35.01230 -131.54773 38171 ft 453 kts 250°
2026-05-05 12:53 34.98825 -131.61862 38175 ft 451 kts 250°
2026-05-05 12:53 34.96429 -131.68907 38176 ft 449 kts 250°
2026-05-05 12:54 34.92843 -131.79435 38172 ft 448 kts 250°
2026-05-05 12:55 34.90467 -131.86380 38181 ft 445 kts 250°
2026-05-05 12:55 34.88089 -131.93321 38181 ft 444 kts 250°
2026-05-05 12:56 34.85708 -132.00259 38171 ft 444 kts 251°
2026-05-05 12:56 34.83331 -132.07163 38184 ft 440 kts 251°
2026-05-05 12:57 34.80980 -132.13979 38186 ft 439 kts 251°
2026-05-05 12:57 34.78615 -132.20825 38168 ft 439 kts 251°
2026-05-05 12:58 34.76250 -132.27649 38184 ft 436 kts 251°
2026-05-05 12:58 34.73896 -132.34431 38184 ft 435 kts 251°
2026-05-05 12:59 34.71543 -132.41198 38163 ft 435 kts 251°
2026-05-05 12:59 34.69201 -132.47915 38189 ft 434 kts 251°
2026-05-05 13:00 34.65670 -132.58018 38192 ft 433 kts 251°
2026-05-05 13:01 34.60953 -132.71460 38195 ft 432 kts 251°
2026-05-05 13:01 34.58607 -132.78126 38197 ft 432 kts 251°
2026-05-05 13:02 34.56243 -132.84828 38194 ft 432 kts 251°
2026-05-05 13:02 34.53874 -132.91531 38201 ft 432 kts 251°
2026-05-05 13:03 34.51500 -132.98232 38202 ft 432 kts 251°
2026-05-05 13:03 34.49138 -133.04890 38193 ft 434 kts 251°
2026-05-05 13:04 34.46748 -133.11607 38197 ft 434 kts 251°
2026-05-05 13:04 34.44354 -133.18321 38202 ft 434 kts 251°
2026-05-05 13:05 34.41958 -133.25026 38193 ft 434 kts 250°
2026-05-05 13:05 34.39558 -133.31729 38206 ft 434 kts 250°
2026-05-05 13:06 34.37172 -133.38381 38208 ft 434 kts 250°
2026-05-05 13:06 34.34764 -133.45081 38217 ft 434 kts 250°
2026-05-05 13:07 34.32353 -133.51773 38212 ft 434 kts 250°
2026-05-05 13:07 34.29938 -133.58462 38217 ft 434 kts 250°
2026-05-05 13:08 34.27536 -133.65102 38208 ft 434 kts 250°
2026-05-05 13:08 34.25118 -133.71770 38210 ft 433 kts 250°
2026-05-05 13:09 34.22702 -133.78421 38216 ft 432 kts 250°
2026-05-05 13:09 34.20282 -133.85073 38205 ft 432 kts 250°
2026-05-05 13:10 34.17860 -133.91712 38217 ft 432 kts 250°
2026-05-05 13:10 34.15452 -133.98301 38214 ft 431 kts 250°
2026-05-05 13:11 34.13027 -134.04925 38210 ft 431 kts 250°
2026-05-05 13:11 34.10597 -134.11544 38217 ft 431 kts 250°
2026-05-05 13:12 34.08167 -134.18152 38221 ft 431 kts 250°
2026-05-05 13:12 34.05751 -134.24711 38216 ft 431 kts 250°
2026-05-05 13:13 34.03314 -134.31312 38222 ft 430 kts 250°
2026-05-05 13:13 34.00877 -134.37902 38222 ft 430 kts 250°
2026-05-05 13:14 33.98438 -134.44487 38218 ft 430 kts 250°
2026-05-05 13:14 33.95998 -134.51061 38230 ft 430 kts 250°
2026-05-05 13:15 33.93574 -134.57583 38224 ft 429 kts 250°
2026-05-05 13:15 33.91130 -134.64145 38222 ft 429 kts 250°
2026-05-05 13:16 33.88685 -134.70692 38229 ft 428 kts 250°
2026-05-05 13:16 33.86244 -134.77217 38229 ft 428 kts 250°
2026-05-05 13:17 33.83816 -134.83699 38233 ft 428 kts 250°
2026-05-05 13:17 33.81368 -134.90220 38230 ft 428 kts 250°
2026-05-05 13:18 33.78914 -134.96741 38235 ft 428 kts 250°
2026-05-05 13:18 33.76457 -135.03259 38242 ft 428 kts 250°
2026-05-05 13:19 33.74017 -135.09716 38239 ft 427 kts 250°
2026-05-05 13:19 33.71563 -135.16202 38228 ft 427 kts 250°
2026-05-05 13:20 33.69104 -135.22688 38234 ft 427 kts 250°
2026-05-05 13:20 33.66643 -135.29165 38235 ft 426 kts 250°
2026-05-05 13:21 33.64199 -135.35588 38237 ft 426 kts 250°
2026-05-05 13:21 33.61738 -135.42051 38236 ft 426 kts 250°
2026-05-05 13:22 33.59272 -135.48507 38238 ft 425 kts 250°
2026-05-05 13:22 33.56804 -135.54954 38239 ft 425 kts 250°
2026-05-05 13:23 33.54348 -135.61357 38238 ft 425 kts 250°
2026-05-05 13:23 33.51873 -135.67796 38246 ft 425 kts 250°
2026-05-05 13:24 33.49397 -135.74225 38244 ft 425 kts 250°
2026-05-05 13:24 33.46915 -135.80657 38246 ft 425 kts 250°
2026-05-05 13:25 33.44449 -135.87038 38246 ft 425 kts 250°
2026-05-05 13:25 33.41960 -135.93464 38249 ft 425 kts 250°
2026-05-05 13:26 33.39468 -135.99886 38245 ft 425 kts 250°
2026-05-05 13:26 33.36973 -136.06306 38249 ft 426 kts 250°
2026-05-05 13:27 33.34471 -136.12730 38247 ft 426 kts 250°
2026-05-05 13:27 33.31983 -136.19103 38246 ft 426 kts 250°
2026-05-05 13:28 33.29476 -136.25515 38249 ft 426 kts 250°
2026-05-05 13:28 33.26963 -136.31932 38250 ft 426 kts 250°
2026-05-05 13:29 33.24447 -136.38342 38249 ft 426 kts 250°
2026-05-05 13:29 33.21946 -136.44703 38252 ft 426 kts 250°
2026-05-05 13:30 33.19427 -136.51096 38252 ft 426 kts 250°
2026-05-05 13:30 33.16905 -136.57488 38232 ft 426 kts 250°
2026-05-05 13:31 33.14379 -136.63876 38252 ft 425 kts 249°
2026-05-05 13:31 33.11871 -136.70206 38254 ft 425 kts 249°
2026-05-05 13:32 33.09344 -136.76573 38254 ft 425 kts 249°
2026-05-05 13:32 33.06813 -136.82939 38255 ft 425 kts 249°
2026-05-05 13:33 33.04279 -136.89299 38255 ft 425 kts 249°
2026-05-05 13:33 33.01760 -136.95612 38254 ft 425 kts 249°
2026-05-05 13:34 32.99220 -137.01965 38257 ft 425 kts 249°
2026-05-05 13:34 32.96679 -137.08309 38258 ft 424 kts 249°
2026-05-05 13:35 32.94135 -137.14649 38260 ft 424 kts 249°
2026-05-05 13:35 32.91602 -137.20950 38260 ft 424 kts 249°
2026-05-05 13:36 32.89052 -137.27281 38258 ft 424 kts 249°
2026-05-05 13:36 32.86499 -137.33607 38260 ft 424 kts 249°
2026-05-05 13:37 32.83945 -137.39927 38261 ft 424 kts 249°
2026-05-05 13:37 32.81387 -137.46242 38260 ft 423 kts 249°
2026-05-05 13:38 32.78850 -137.52494 38258 ft 423 kts 249°
2026-05-05 13:38 32.76291 -137.58793 38269 ft 423 kts 249°
2026-05-05 13:39 32.73730 -137.65082 38261 ft 423 kts 248°
2026-05-05 13:39 32.71168 -137.71363 38253 ft 422 kts 248°
2026-05-05 13:40 32.68623 -137.77591 38255 ft 422 kts 248°
2026-05-05 13:40 32.66058 -137.83859 38272 ft 422 kts 248°
2026-05-05 13:41 32.63491 -137.90116 38264 ft 421 kts 248°
2026-05-05 13:41 32.60923 -137.96368 38258 ft 421 kts 248°
2026-05-05 13:42 32.58371 -138.02570 38247 ft 421 kts 248°
2026-05-05 13:42 32.55798 -138.08811 38265 ft 421 kts 248°
2026-05-05 13:43 32.53226 -138.15035 38271 ft 420 kts 248°
2026-05-05 13:43 32.50653 -138.21257 38267 ft 420 kts 248°
2026-05-05 13:44 32.48078 -138.27470 38253 ft 420 kts 247°
2026-05-05 13:44 32.45516 -138.33640 38264 ft 420 kts 247°
2026-05-05 13:45 32.42936 -138.39843 38267 ft 420 kts 247°
2026-05-05 13:45 32.40353 -138.46042 38263 ft 420 kts 247°
2026-05-05 13:46 32.37785 -138.52195 38253 ft 420 kts 247°
2026-05-05 13:46 32.35198 -138.58383 38263 ft 420 kts 247°
2026-05-05 13:47 32.32603 -138.64579 38259 ft 420 kts 247°
2026-05-05 13:47 32.30006 -138.70770 38260 ft 420 kts 246°
2026-05-05 13:48 32.27408 -138.76949 38249 ft 420 kts 246°
2026-05-05 13:48 32.24826 -138.83084 38261 ft 420 kts 246°
2026-05-05 13:49 32.22219 -138.89266 38260 ft 420 kts 246°
2026-05-05 13:49 32.19609 -138.95444 38260 ft 420 kts 246°
2026-05-05 13:50 32.16999 -139.01612 38258 ft 420 kts 246°
2026-05-05 13:50 32.14381 -139.07788 38265 ft 421 kts 246°
2026-05-05 13:51 32.11779 -139.13913 38257 ft 420 kts 246°
2026-05-05 13:51 32.09157 -139.20078 38261 ft 420 kts 246°
2026-05-05 13:52 32.06533 -139.26236 38270 ft 420 kts 246°
2026-05-05 13:52 32.03908 -139.32387 38261 ft 420 kts 246°
2026-05-05 13:53 32.01299 -139.38486 38259 ft 419 kts 246°
2026-05-05 13:53 31.98673 -139.44618 38258 ft 419 kts 246°
2026-05-05 13:54 31.96046 -139.50744 38261 ft 419 kts 246°
2026-05-05 13:54 31.93415 -139.56866 38268 ft 419 kts 245°
2026-05-05 13:55 31.90785 -139.62974 38263 ft 418 kts 245°
2026-05-05 13:55 31.88174 -139.69030 38261 ft 418 kts 245°
2026-05-05 13:56 31.85540 -139.75129 38265 ft 418 kts 245°
2026-05-05 13:56 31.82906 -139.81217 38263 ft 417 kts 245°
2026-05-05 13:57 31.80273 -139.87293 38264 ft 417 kts 245°
2026-05-05 13:57 31.77652 -139.93333 38262 ft 418 kts 245°
2026-05-05 13:58 31.75008 -139.99414 38263 ft 418 kts 245°
2026-05-05 13:58 31.72367 -140.05477 38266 ft 416 kts 245°
2026-05-05 13:59 31.68422 -140.14516 38259 ft 416 kts 245°
2026-05-05 14:00 31.64903 -140.22561 38262 ft 416 kts 245°
2026-05-05 14:00 31.61814 -140.29609 38264 ft 415 kts 245°
2026-05-05 14:01 31.59168 -140.35635 38261 ft 416 kts 245°
2026-05-05 14:01 31.56531 -140.41633 38261 ft 417 kts 244°
2026-05-05 14:02 31.53875 -140.47660 38262 ft 416 kts 244°
2026-05-05 14:02 31.51219 -140.53678 38262 ft 415 kts 244°
2026-05-05 14:03 31.48562 -140.59690 38256 ft 416 kts 244°
2026-05-05 14:03 31.45898 -140.65709 38260 ft 417 kts 244°
2026-05-05 14:04 31.43247 -140.71686 38262 ft 416 kts 244°
2026-05-05 14:04 31.40578 -140.77695 38260 ft 416 kts 244°
2026-05-05 14:05 31.37910 -140.83694 38246 ft 416 kts 244°
2026-05-05 14:05 31.35235 -140.89697 38259 ft 416 kts 244°
2026-05-05 14:06 31.32572 -140.95664 38257 ft 416 kts 244°
2026-05-05 14:06 31.29891 -141.01662 38257 ft 416 kts 244°
2026-05-05 14:07 31.27210 -141.07650 38251 ft 416 kts 244°
2026-05-05 14:07 31.24523 -141.13641 38253 ft 416 kts 243°
2026-05-05 14:08 31.21846 -141.19605 38256 ft 417 kts 243°
2026-05-05 14:08 31.19144 -141.25610 38254 ft 418 kts 243°
2026-05-05 14:09 31.16440 -141.31608 38256 ft 418 kts 243°
2026-05-05 14:09 31.13730 -141.37603 38238 ft 417 kts 243°
2026-05-05 14:10 31.11018 -141.43596 38252 ft 418 kts 243°
2026-05-05 14:10 31.08297 -141.49598 38251 ft 419 kts 243°
2026-05-05 14:11 31.05592 -141.55554 38252 ft 419 kts 243°
2026-05-05 14:11 31.02864 -141.61553 38251 ft 418 kts 243°
2026-05-05 14:12 31.00139 -141.67535 38252 ft 418 kts 243°
2026-05-05 14:12 30.97410 -141.73519 38251 ft 418 kts 243°
2026-05-05 14:13 30.94692 -141.79467 38249 ft 419 kts 243°
2026-05-05 14:13 30.91954 -141.85450 38249 ft 418 kts 243°
2026-05-05 14:14 30.89216 -141.91424 38252 ft 418 kts 242°
2026-05-05 14:14 30.86475 -141.97394 38249 ft 419 kts 242°
2026-05-05 14:15 30.83741 -142.03341 38249 ft 419 kts 242°
2026-05-05 14:15 30.80990 -142.09314 38249 ft 419 kts 242°
2026-05-05 14:16 30.78235 -142.15287 38246 ft 419 kts 242°
2026-05-05 14:16 30.75480 -142.21252 38242 ft 419 kts 242°
2026-05-05 14:17 30.72738 -142.27179 38247 ft 420 kts 242°
2026-05-05 14:17 30.69970 -142.33151 38242 ft 420 kts 242°
2026-05-05 14:18 30.67201 -142.39116 38243 ft 419 kts 242°
2026-05-05 14:18 30.64430 -142.45077 38243 ft 419 kts 242°
2026-05-05 14:19 30.61678 -142.50991 38244 ft 420 kts 242°
2026-05-05 14:19 30.58896 -142.56957 38243 ft 420 kts 242°
2026-05-05 14:20 30.56110 -142.62921 38241 ft 420 kts 242°
2026-05-05 14:20 30.53322 -142.68882 38241 ft 420 kts 242°
2026-05-05 14:21 30.50553 -142.74792 38244 ft 420 kts 242°
2026-05-05 14:21 30.47761 -142.80743 38243 ft 420 kts 242°
2026-05-05 14:22 30.44972 -142.86678 38245 ft 419 kts 242°
2026-05-05 14:22 30.42181 -142.92609 38242 ft 419 kts 242°
2026-05-05 14:23 30.39406 -142.98497 38241 ft 419 kts 242°
2026-05-05 14:23 30.36610 -143.04421 38227 ft 419 kts 242°
2026-05-05 14:24 30.33809 -143.10346 38242 ft 420 kts 242°
2026-05-05 14:24 30.31000 -143.16279 38241 ft 420 kts 242°
2026-05-05 14:25 30.28206 -143.22168 38241 ft 420 kts 242°
2026-05-05 14:25 30.25391 -143.28095 38241 ft 420 kts 242°
2026-05-05 14:26 30.22580 -143.34006 38238 ft 419 kts 242°
2026-05-05 14:26 30.19762 -143.39920 38239 ft 420 kts 241°
2026-05-05 14:27 30.16958 -143.45792 38239 ft 420 kts 241°
2026-05-05 14:27 30.14130 -143.51705 38238 ft 420 kts 241°
2026-05-05 14:28 30.11301 -143.57615 38239 ft 420 kts 241°
2026-05-05 14:28 30.08471 -143.63519 38237 ft 420 kts 241°
2026-05-05 14:29 30.05633 -143.69433 38240 ft 422 kts 241°
2026-05-05 14:29 30.02806 -143.75314 38240 ft 422 kts 241°
2026-05-05 14:30 29.99958 -143.81229 38239 ft 421 kts 241°
2026-05-05 14:30 29.97113 -143.87130 38239 ft 421 kts 241°
2026-05-05 14:31 29.94262 -143.93034 38233 ft 421 kts 241°
2026-05-05 14:31 29.91424 -143.98903 38231 ft 422 kts 241°
2026-05-05 14:32 29.88562 -144.04812 38233 ft 422 kts 241°
2026-05-05 14:32 29.85698 -144.10715 38230 ft 422 kts 241°
2026-05-05 14:33 29.82835 -144.16610 38231 ft 422 kts 241°
2026-05-05 14:33 29.79987 -144.22464 38231 ft 422 kts 241°
2026-05-05 14:34 29.77114 -144.28361 38231 ft 422 kts 241°
2026-05-05 14:34 29.74241 -144.34248 38230 ft 422 kts 241°
2026-05-05 14:35 29.71369 -144.40125 38231 ft 421 kts 241°
2026-05-05 14:35 29.68512 -144.45964 38229 ft 421 kts 241°
2026-05-05 14:36 29.65635 -144.51835 38232 ft 422 kts 242°
2026-05-05 14:36 29.62754 -144.57704 38229 ft 421 kts 242°
2026-05-05 14:37 29.59871 -144.63570 38236 ft 421 kts 242°
2026-05-05 14:37 29.57006 -144.69390 38227 ft 421 kts 242°
2026-05-05 14:38 29.54118 -144.75248 38230 ft 421 kts 242°
2026-05-05 14:38 29.51230 -144.81098 38237 ft 421 kts 242°
2026-05-05 14:39 29.48341 -144.86941 38231 ft 420 kts 242°
2026-05-05 14:39 29.45471 -144.92738 38223 ft 420 kts 242°
2026-05-05 14:40 29.42581 -144.98567 38211 ft 421 kts 242°
2026-05-05 14:40 29.39686 -145.04397 38224 ft 420 kts 242°
2026-05-05 14:41 29.36794 -145.10210 38223 ft 419 kts 242°
2026-05-05 14:41 29.33922 -145.15977 38222 ft 419 kts 242°
2026-05-05 14:42 29.31031 -145.21777 38225 ft 419 kts 242°
2026-05-05 14:42 29.28134 -145.27578 38225 ft 419 kts 242°
2026-05-05 14:43 29.25239 -145.33365 38224 ft 419 kts 242°
2026-05-05 14:43 29.22343 -145.39146 38214 ft 418 kts 242°
2026-05-05 14:44 29.19467 -145.44881 38220 ft 418 kts 242°
2026-05-05 14:44 29.16571 -145.50647 38217 ft 418 kts 242°
2026-05-05 14:45 29.13673 -145.56409 38217 ft 418 kts 242°
2026-05-05 14:45 29.10794 -145.62124 38214 ft 417 kts 242°
2026-05-05 14:46 29.07896 -145.67870 38214 ft 417 kts 242°
2026-05-05 14:46 29.05000 -145.73603 38212 ft 417 kts 242°
2026-05-05 14:47 29.02098 -145.79342 38215 ft 417 kts 242°
2026-05-05 14:47 28.99216 -145.85031 38213 ft 416 kts 241°
2026-05-05 14:48 28.96313 -145.90755 38211 ft 416 kts 241°
2026-05-05 14:48 28.93409 -145.96471 38210 ft 416 kts 241°
2026-05-05 14:49 28.90503 -146.02185 38207 ft 416 kts 241°
2026-05-05 14:49 28.87613 -146.07858 38209 ft 416 kts 241°
2026-05-05 14:50 28.84706 -146.13559 38213 ft 416 kts 241°
2026-05-05 14:50 28.81794 -146.19260 38210 ft 416 kts 241°
2026-05-05 14:51 28.78882 -146.24953 38206 ft 416 kts 241°
2026-05-05 14:51 28.75964 -146.30650 38205 ft 416 kts 241°
2026-05-05 14:52 28.73069 -146.36295 38203 ft 415 kts 241°
2026-05-05 14:52 28.70154 -146.41970 38203 ft 415 kts 241°
2026-05-05 14:53 28.67240 -146.47637 38203 ft 415 kts 241°
2026-05-05 14:53 28.64321 -146.53306 38203 ft 415 kts 241°
2026-05-05 14:54 28.61401 -146.58967 38208 ft 415 kts 241°
2026-05-05 14:54 28.58501 -146.64583 38200 ft 414 kts 241°
2026-05-05 14:55 28.55582 -146.70229 38200 ft 414 kts 241°
2026-05-05 14:55 28.52661 -146.75869 38197 ft 414 kts 241°
2026-05-05 14:56 28.49738 -146.81507 38198 ft 414 kts 241°
2026-05-05 14:56 28.46835 -146.87100 38198 ft 414 kts 241°
2026-05-05 14:57 28.43910 -146.92726 38192 ft 413 kts 240°
2026-05-05 14:57 28.40982 -146.98350 38197 ft 413 kts 240°
2026-05-05 14:58 28.38054 -147.03967 38197 ft 413 kts 240°
2026-05-05 14:58 28.35616 -147.08639 38197 ft 413 kts 240°
2026-05-05 14:59 28.32209 -147.15158 38194 ft 413 kts 240°
2026-05-05 14:59 28.29273 -147.20767 38194 ft 413 kts 240°
2026-05-05 15:00 28.26833 -147.25424 38194 ft 413 kts 240°
2026-05-05 15:00 28.23890 -147.31034 38194 ft 414 kts 240°
2026-05-05 15:01 28.20466 -147.37552 38190 ft 414 kts 240°
2026-05-05 15:01 28.17993 -147.42252 38189 ft 414 kts 240°
2026-05-05 15:02 28.15062 -147.47816 38186 ft 414 kts 240°
2026-05-05 15:02 28.12107 -147.53419 38191 ft 414 kts 240°
2026-05-05 15:03 28.09150 -147.59019 38186 ft 414 kts 240°
2026-05-05 15:03 28.06189 -147.64618 38184 ft 414 kts 240°
2026-05-05 15:04 28.03247 -147.70174 38184 ft 414 kts 240°
2026-05-05 15:04 28.00280 -147.75769 38184 ft 414 kts 240°
2026-05-05 15:05 27.95349 -147.85054 38181 ft 414 kts 240°
2026-05-05 15:06 27.92859 -147.89735 38179 ft 414 kts 240°
2026-05-05 15:06 27.89907 -147.95278 38181 ft 415 kts 240°
2026-05-05 15:07 27.86929 -148.00859 38180 ft 414 kts 240°
2026-05-05 15:07 27.83950 -148.06433 38178 ft 414 kts 240°
2026-05-05 15:08 27.80971 -148.12001 38179 ft 414 kts 240°
2026-05-05 15:08 27.78009 -148.17532 38173 ft 414 kts 240°
2026-05-05 15:09 27.75022 -148.23100 38171 ft 414 kts 240°
2026-05-05 15:09 27.72037 -148.28660 38174 ft 414 kts 240°
2026-05-05 15:10 27.69046 -148.34222 38173 ft 414 kts 240°
2026-05-05 15:10 27.66053 -148.39781 38173 ft 415 kts 240°
2026-05-05 15:11 27.63077 -148.45301 38172 ft 414 kts 240°
2026-05-05 15:11 27.60079 -148.50855 38164 ft 414 kts 239°
2026-05-05 15:12 27.57081 -148.56402 38174 ft 414 kts 239°
2026-05-05 15:12 27.54085 -148.61938 38172 ft 414 kts 239°
2026-05-05 15:13 27.51083 -148.67479 38172 ft 414 kts 239°
2026-05-05 15:13 27.48101 -148.72974 38173 ft 414 kts 239°
2026-05-05 15:14 27.45097 -148.78505 38172 ft 414 kts 239°
2026-05-05 15:14 27.42089 -148.84035 38173 ft 414 kts 239°
2026-05-05 15:15 27.39078 -148.89564 38168 ft 414 kts 239°
2026-05-05 15:15 27.36085 -148.95052 38170 ft 414 kts 239°
2026-05-05 15:16 27.33069 -149.00575 38170 ft 414 kts 239°
2026-05-05 15:16 27.30054 -149.06091 38167 ft 414 kts 239°
2026-05-05 15:17 27.27035 -149.11606 38167 ft 414 kts 239°
2026-05-05 15:17 27.24039 -149.17073 38171 ft 414 kts 239°
2026-05-05 15:18 27.21015 -149.22582 38170 ft 414 kts 239°
2026-05-05 15:18 27.17991 -149.28087 38158 ft 414 kts 239°
2026-05-05 15:19 27.14967 -149.33583 38161 ft 414 kts 239°
2026-05-05 15:19 27.11960 -149.39042 38162 ft 414 kts 239°
2026-05-05 15:20 27.08933 -149.44532 38180 ft 414 kts 239°
2026-05-05 15:20 27.05901 -149.50022 38156 ft 414 kts 239°
2026-05-05 15:21 27.02868 -149.55508 38163 ft 414 kts 239°
2026-05-05 15:21 26.99832 -149.60992 38171 ft 414 kts 239°
2026-05-05 15:22 26.96817 -149.66432 38164 ft 414 kts 239°
2026-05-05 15:22 26.93779 -149.71907 38165 ft 414 kts 239°
2026-05-05 15:23 26.90735 -149.77385 38168 ft 414 kts 239°
2026-05-05 15:23 26.87692 -149.82855 38161 ft 414 kts 239°
2026-05-05 15:24 26.84650 -149.88316 38160 ft 413 kts 239°
2026-05-05 15:24 26.81629 -149.93733 38163 ft 413 kts 239°
2026-05-05 15:25 26.78589 -149.99178 38157 ft 413 kts 239°
2026-05-05 15:25 26.75546 -150.04622 38162 ft 413 kts 239°
2026-05-05 15:26 26.72500 -150.10064 38154 ft 413 kts 239°
2026-05-05 15:26 26.69472 -150.15468 38146 ft 413 kts 239°
2026-05-05 15:27 26.66426 -150.20896 38156 ft 412 kts 239°
2026-05-05 15:27 26.63382 -150.26313 38149 ft 411 kts 239°
2026-05-05 15:28 26.60338 -150.31727 38153 ft 411 kts 239°
2026-05-05 15:28 26.57311 -150.37103 38154 ft 411 kts 239°
2026-05-05 15:29 26.54262 -150.42511 38151 ft 411 kts 239°
2026-05-05 15:29 26.51213 -150.47913 38129 ft 411 kts 239°
2026-05-05 15:30 26.48161 -150.53311 38149 ft 410 kts 239°
2026-05-05 15:30 26.45137 -150.58656 38152 ft 410 kts 239°
2026-05-05 15:31 26.42095 -150.64026 38153 ft 410 kts 239°
2026-05-05 15:31 26.39050 -150.69398 38151 ft 410 kts 239°
2026-05-05 15:32 26.36002 -150.74766 38148 ft 410 kts 239°
2026-05-05 15:32 26.32971 -150.80096 38149 ft 410 kts 239°
2026-05-05 15:33 26.29919 -150.85459 38149 ft 409 kts 239°
2026-05-05 15:33 26.26870 -150.90808 38147 ft 408 kts 239°
2026-05-05 15:34 26.23845 -150.96111 38146 ft 408 kts 239°
2026-05-05 15:34 26.20798 -151.01447 38146 ft 408 kts 239°
2026-05-05 15:35 26.17750 -151.06778 38147 ft 408 kts 239°
2026-05-05 15:35 26.14695 -151.12114 38144 ft 409 kts 239°
2026-05-05 15:36 26.11637 -151.17449 38136 ft 408 kts 239°
2026-05-05 15:36 26.08610 -151.22720 38144 ft 406 kts 239°
2026-05-05 15:37 26.05568 -151.28015 38141 ft 406 kts 239°
2026-05-05 15:37 26.02528 -151.33304 38140 ft 406 kts 239°
2026-05-05 15:38 25.99484 -151.38591 38146 ft 406 kts 239°
2026-05-05 15:38 25.96455 -151.43844 38140 ft 406 kts 239°
2026-05-05 15:39 25.93403 -151.49133 38140 ft 406 kts 239°
2026-05-05 15:39 25.90352 -151.54412 38140 ft 406 kts 239°
2026-05-05 15:40 25.87306 -151.59676 38140 ft 405 kts 239°
2026-05-05 15:40 25.84282 -151.64900 38137 ft 405 kts 239°
2026-05-05 15:41 25.81236 -151.70153 38138 ft 405 kts 239°
2026-05-05 15:41 25.78186 -151.75408 38135 ft 405 kts 239°
2026-05-05 15:42 25.75132 -151.80664 38140 ft 405 kts 239°
2026-05-05 15:42 25.72098 -151.85879 38132 ft 405 kts 239°
2026-05-05 15:43 25.69049 -151.91112 38135 ft 404 kts 239°
2026-05-05 15:43 25.66004 -151.96337 38136 ft 403 kts 239°
2026-05-05 15:44 25.62955 -152.01561 38136 ft 404 kts 239°
2026-05-05 15:44 25.59924 -152.06748 38135 ft 404 kts 239°
2026-05-05 15:45 25.56870 -152.11968 38132 ft 404 kts 239°
2026-05-05 15:45 25.53814 -152.17185 38133 ft 404 kts 239°
2026-05-05 15:46 25.50757 -152.22399 38138 ft 404 kts 239°
2026-05-05 15:46 25.47717 -152.27579 38132 ft 404 kts 239°
2026-05-05 15:47 25.44651 -152.32796 38137 ft 404 kts 239°
2026-05-05 15:47 25.41586 -152.38008 38135 ft 404 kts 239°
2026-05-05 15:48 25.38536 -152.43185 38130 ft 404 kts 239°
2026-05-05 15:48 25.35465 -152.48395 38132 ft 404 kts 239°
2026-05-05 15:49 25.32392 -152.53602 38124 ft 404 kts 239°
2026-05-05 15:49 25.29321 -152.58797 38136 ft 404 kts 239°
2026-05-05 15:50 25.26252 -152.63986 38132 ft 403 kts 239°
2026-05-05 15:50 25.23202 -152.69137 38130 ft 403 kts 239°
2026-05-05 15:51 25.20135 -152.74311 38130 ft 403 kts 239°
2026-05-05 15:51 25.17061 -152.79490 38130 ft 403 kts 238°
2026-05-05 15:52 25.13985 -152.84668 38130 ft 403 kts 238°
2026-05-05 15:52 25.10929 -152.89806 38119 ft 403 kts 238°
2026-05-05 15:53 25.07852 -152.94974 38133 ft 403 kts 238°
2026-05-05 15:53 25.04773 -153.00139 38131 ft 403 kts 238°
2026-05-05 15:54 25.01694 -153.05300 38126 ft 403 kts 238°
2026-05-05 15:54 24.98633 -153.10423 38127 ft 403 kts 238°
2026-05-05 15:55 24.95550 -153.15581 38127 ft 403 kts 238°
2026-05-05 15:55 24.92463 -153.20737 38125 ft 403 kts 238°
2026-05-05 15:56 24.89373 -153.25894 38116 ft 403 kts 238°
2026-05-05 15:56 24.86304 -153.31009 38129 ft 403 kts 238°
2026-05-05 15:57 24.83212 -153.36156 38127 ft 403 kts 238°
2026-05-05 15:57 24.80124 -153.41294 38127 ft 403 kts 238°
2026-05-05 15:58 24.77032 -153.46433 38123 ft 403 kts 238°
2026-05-05 15:58 24.73959 -153.51533 38121 ft 403 kts 238°
2026-05-05 15:59 24.70862 -153.56668 38123 ft 403 kts 238°
2026-05-05 15:59 24.67762 -153.61802 38118 ft 403 kts 238°
2026-05-05 16:00 24.64664 -153.66927 38135 ft 402 kts 238°
2026-05-05 16:00 24.61590 -153.72007 38121 ft 402 kts 238°
2026-05-05 16:01 24.58493 -153.77122 38127 ft 402 kts 238°
2026-05-05 16:01 24.55394 -153.82233 38121 ft 402 kts 238°
2026-05-05 16:02 24.52293 -153.87343 38117 ft 402 kts 238°
2026-05-05 16:02 24.49187 -153.92455 38118 ft 402 kts 238°
2026-05-05 16:03 24.46103 -153.97525 38120 ft 402 kts 238°
2026-05-05 16:03 24.42997 -154.02627 38122 ft 402 kts 238°
2026-05-05 16:04 24.39888 -154.07727 38118 ft 402 kts 238°
2026-05-05 16:04 24.36780 -154.12824 38117 ft 402 kts 238°
2026-05-05 16:05 24.33693 -154.17885 38119 ft 402 kts 238°
2026-05-05 16:05 24.30584 -154.22973 38114 ft 402 kts 238°
2026-05-05 16:06 24.27491 -154.28076 38122 ft 402 kts 238°
2026-05-05 16:06 24.24382 -154.33168 38108 ft 402 kts 237°
2026-05-05 16:07 24.21274 -154.38213 38114 ft 402 kts 237°
2026-05-05 16:07 24.18133 -154.43293 38114 ft 403 kts 237°
2026-05-05 16:08 24.14988 -154.48368 38113 ft 403 kts 237°
2026-05-05 16:08 24.11840 -154.53443 38113 ft 403 kts 237°
2026-05-05 16:09 24.08712 -154.58481 38108 ft 403 kts 237°
2026-05-05 16:09 24.05563 -154.63545 38113 ft 403 kts 237°
2026-05-05 16:10 24.02412 -154.68610 38099 ft 403 kts 237°
2026-05-05 16:10 23.99251 -154.73685 38108 ft 404 kts 237°
2026-05-05 16:11 23.96087 -154.78757 38108 ft 404 kts 237°
2026-05-05 16:12 23.89777 -154.88863 38105 ft 404 kts 237°
2026-05-05 16:13 23.81871 -155.01493 38105 ft 404 kts 237°
2026-05-05 16:13 23.78697 -155.06556 38103 ft 404 kts 237°
2026-05-05 16:14 23.72331 -155.16693 38104 ft 405 kts 237°
2026-05-05 16:15 23.65982 -155.26784 38100 ft 405 kts 237°
2026-05-05 16:16 23.59603 -155.36901 38104 ft 405 kts 237°
2026-05-05 16:17 23.54833 -155.44456 38094 ft 406 kts 237°
2026-05-05 16:18 23.51247 -155.49224 38102 ft 409 kts 226°
2026-05-05 16:18 23.49161 -155.51333 38096 ft 410 kts 224°
2026-05-05 16:19 23.42763 -155.57584 38105 ft 412 kts 224°
2026-05-05 16:19 23.36395 -155.63812 38100 ft 412 kts 224°
2026-05-05 16:20 23.27875 -155.72146 38095 ft 412 kts 224°
2026-05-05 16:22 23.17251 -155.82519 38102 ft 412 kts 224°
2026-05-05 16:23 23.08720 -155.90831 38091 ft 412 kts 224°
2026-05-05 16:23 23.02314 -155.97064 38090 ft 413 kts 224°
2026-05-05 16:24 22.98066 -156.01192 38094 ft 413 kts 224°
2026-05-05 16:25 22.91643 -156.07426 38085 ft 413 kts 224°
2026-05-05 16:25 22.85190 -156.13613 38090 ft 413 kts 224°
2026-05-05 16:26 22.76616 -156.21861 38093 ft 413 kts 224°
2026-05-05 16:27 22.72332 -156.26011 38080 ft 414 kts 224°
2026-05-05 16:27 22.68040 -156.30167 38080 ft 414 kts 224°
2026-05-05 16:28 22.65896 -156.32242 37962 ft 412 kts 224°
2026-05-05 16:28 22.63798 -156.34272 37710 ft 408 kts 224°
2026-05-05 16:28 22.61692 -156.36310 37461 ft 407 kts 224°
2026-05-05 16:28 22.59579 -156.38354 37188 ft 408 kts 224°
2026-05-05 16:29 22.57457 -156.40406 36925 ft 410 kts 224°
2026-05-05 16:29 22.55324 -156.42467 36645 ft 411 kts 224°
2026-05-05 16:29 22.53188 -156.44530 36395 ft 413 kts 224°
2026-05-05 16:29 22.51038 -156.46604 36142 ft 415 kts 224°
2026-05-05 16:30 22.48882 -156.48682 35886 ft 416 kts 224°
2026-05-05 16:30 22.46716 -156.50770 35654 ft 417 kts 224°
2026-05-05 16:30 22.44575 -156.52832 35423 ft 419 kts 224°
2026-05-05 16:30 22.42399 -156.54928 35178 ft 420 kts 224°
2026-05-05 16:31 22.40213 -156.57032 34938 ft 421 kts 224°
2026-05-05 16:31 22.38019 -156.59143 34709 ft 423 kts 224°
2026-05-05 16:31 22.35833 -156.61239 34378 ft 419 kts 223°
2026-05-05 16:31 22.33609 -156.63272 33778 ft 419 kts 221°
2026-05-05 16:32 22.31363 -156.65275 33130 ft 419 kts 221°
2026-05-05 16:32 22.29115 -156.67270 32519 ft 418 kts 221°
2026-05-05 16:32 22.26903 -156.69235 31917 ft 417 kts 221°
2026-05-05 16:32 22.24665 -156.71222 31279 ft 416 kts 221°
2026-05-05 16:33 22.22428 -156.73210 30657 ft 417 kts 221°
2026-05-05 16:33 22.20204 -156.75186 30229 ft 411 kts 221°
2026-05-05 16:33 22.18007 -156.77138 29725 ft 406 kts 221°
2026-05-05 16:33 22.15840 -156.79063 29253 ft 401 kts 221°
2026-05-05 16:34 22.13700 -156.80965 28801 ft 396 kts 221°
2026-05-05 16:34 22.11585 -156.82845 28347 ft 394 kts 221°
2026-05-05 16:34 22.09500 -156.84697 27885 ft 392 kts 221°
2026-05-05 16:34 22.07401 -156.86560 27442 ft 390 kts 221°
2026-05-05 16:35 22.05307 -156.88417 27003 ft 388 kts 221°
2026-05-05 16:35 22.03228 -156.90260 26534 ft 386 kts 221°
2026-05-05 16:35 22.01161 -156.92092 26074 ft 383 kts 221°
2026-05-05 16:35 21.99108 -156.93911 25621 ft 381 kts 220°
2026-05-05 16:36 21.97064 -156.95722 25174 ft 379 kts 220°
2026-05-05 16:36 21.95031 -156.97521 24738 ft 377 kts 220°
2026-05-05 16:36 21.93011 -156.99309 24277 ft 375 kts 220°
2026-05-05 16:36 21.91001 -157.01086 23824 ft 373 kts 220°
2026-05-05 16:37 21.89002 -157.02854 23336 ft 371 kts 220°
2026-05-05 16:37 21.87044 -157.04585 22876 ft 368 kts 220°
2026-05-05 16:37 21.85068 -157.06331 22441 ft 366 kts 220°
2026-05-05 16:37 21.83106 -157.08064 22007 ft 364 kts 220°
2026-05-05 16:38 21.81154 -157.09787 21572 ft 362 kts 220°
2026-05-05 16:38 21.79214 -157.11499 21126 ft 360 kts 220°
2026-05-05 16:38 21.77285 -157.13202 20705 ft 358 kts 220°
2026-05-05 16:38 21.75365 -157.14894 20272 ft 356 kts 220°
2026-05-05 16:39 21.73457 -157.16575 19836 ft 354 kts 220°
2026-05-05 16:39 21.71601 -157.18211 19636 ft 344 kts 220°
2026-05-05 16:39 21.69797 -157.19829 19483 ft 332 kts 223°
2026-05-05 16:39 21.68141 -157.21542 19084 ft 330 kts 226°
2026-05-05 16:40 21.66540 -157.23307 18697 ft 328 kts 226°
2026-05-05 16:40 21.64957 -157.25069 18323 ft 327 kts 226°
2026-05-05 16:40 21.63379 -157.26823 17914 ft 325 kts 226°
2026-05-05 16:40 21.61809 -157.28565 17536 ft 324 kts 226°
2026-05-05 16:41 21.60244 -157.30298 17169 ft 323 kts 226°
2026-05-05 16:41 21.58683 -157.32025 16800 ft 321 kts 226°
2026-05-05 16:41 21.57152 -157.33718 16436 ft 320 kts 226°
2026-05-05 16:41 21.55606 -157.35426 16074 ft 318 kts 226°
2026-05-05 16:42 21.54066 -157.37127 15718 ft 316 kts 226°
2026-05-05 16:42 21.52535 -157.38818 15350 ft 316 kts 226°
2026-05-05 16:42 21.51009 -157.40502 14998 ft 314 kts 226°
2026-05-05 16:42 21.49490 -157.42178 14618 ft 313 kts 226°
2026-05-05 16:43 21.47980 -157.43845 14353 ft 307 kts 226°
2026-05-05 16:43 21.46518 -157.45461 14245 ft 297 kts 226°
2026-05-05 16:43 21.45099 -157.47029 14027 ft 291 kts 226°
2026-05-05 16:43 21.43705 -157.48569 13669 ft 292 kts 226°
2026-05-05 16:44 21.42312 -157.50141 13332 ft 289 kts 229°
2026-05-05 16:44 21.41219 -157.51931 13023 ft 285 kts 243°
2026-05-05 16:44 21.40419 -157.53859 12718 ft 282 kts 246°
2026-05-05 16:44 21.39683 -157.55802 12407 ft 280 kts 247°
2026-05-05 16:45 21.38959 -157.57735 12120 ft 279 kts 247°
2026-05-05 16:45 21.38236 -157.59655 11813 ft 277 kts 247°
2026-05-05 16:45 21.37511 -157.61571 11515 ft 276 kts 246°
2026-05-05 16:45 21.36788 -157.63474 11214 ft 275 kts 246°
2026-05-05 16:46 21.36065 -157.65374 10907 ft 274 kts 246°
2026-05-05 16:46 21.35356 -157.67234 10613 ft 273 kts 246°
2026-05-05 16:46 21.34640 -157.69111 10311 ft 271 kts 246°
2026-05-05 16:46 21.33926 -157.70982 10011 ft 270 kts 246°
2026-05-05 16:47 21.33215 -157.72843 9675 ft 269 kts 246°
2026-05-05 16:47 21.32508 -157.74691 9365 ft 267 kts 246°
2026-05-05 16:47 21.31803 -157.76532 9104 ft 265 kts 246°
2026-05-05 16:47 21.31119 -157.78319 9033 ft 254 kts 246°
2026-05-05 16:48 21.30461 -157.80039 8924 ft 246 kts 246°
2026-05-05 16:48 21.29819 -157.81714 8626 ft 247 kts 245°
2026-05-05 16:48 21.29165 -157.83419 8349 ft 247 kts 245°
2026-05-05 16:48 21.28506 -157.85122 8100 ft 248 kts 244°
2026-05-05 16:49 21.27777 -157.86829 7883 ft 256 kts 242°
2026-05-05 16:49 21.27006 -157.88557 7575 ft 256 kts 242°
2026-05-05 16:49 21.26235 -157.90272 7307 ft 255 kts 242°
2026-05-05 16:49 21.25477 -157.91955 7063 ft 254 kts 242°
2026-05-05 16:50 21.24710 -157.93658 6812 ft 253 kts 241°
2026-05-05 16:50 21.23998 -157.95377 6570 ft 251 kts 249°
2026-05-05 16:50 21.23715 -157.97191 6392 ft 245 kts 263°
2026-05-05 16:50 21.23680 -157.99002 6182 ft 242 kts 266°
2026-05-05 16:51 21.23689 -158.00800 5945 ft 241 kts 267°
2026-05-05 16:51 21.23700 -158.02594 5785 ft 241 kts 267°
2026-05-05 16:51 21.23707 -158.04386 5654 ft 241 kts 267°
2026-05-05 16:51 21.23711 -158.06178 5521 ft 240 kts 267°
2026-05-05 16:52 21.23714 -158.07969 5390 ft 240 kts 267°
2026-05-05 16:52 21.23716 -158.09733 5256 ft 240 kts 267°
2026-05-05 16:52 21.23716 -158.11511 5135 ft 239 kts 267°
2026-05-05 16:52 21.23716 -158.13298 4990 ft 239 kts 267°
2026-05-05 16:53 21.23716 -158.15076 4860 ft 239 kts 267°
2026-05-05 16:53 21.23715 -158.16853 4732 ft 238 kts 267°
2026-05-05 16:53 21.23745 -158.18629 4586 ft 239 kts 273°
2026-05-05 16:53 21.24210 -158.20331 4448 ft 241 kts 297°
2026-05-05 16:54 21.25379 -158.21597 4308 ft 243 kts 328°
2026-05-05 16:54 21.26997 -158.22094 4211 ft 244 kts 353°
2026-05-05 16:54 21.28667 -158.22150 4083 ft 243 kts 359°
2026-05-05 16:54 21.30338 -158.21911 3894 ft 244 kts 17°
2026-05-05 16:55 21.31757 -158.20946 3542 ft 243 kts 47°
2026-05-05 16:55 21.32530 -158.19365 3232 ft 242 kts 77°
2026-05-05 16:55 21.32677 -158.17582 2917 ft 240 kts 89°
2026-05-05 16:55 21.32614 -158.15805 2649 ft 237 kts 92°
2026-05-05 16:56 21.32551 -158.14046 2350 ft 235 kts 90°
2026-05-05 16:56 21.32542 -158.12319 2225 ft 226 kts 88°
2026-05-05 16:56 21.32557 -158.10689 2226 ft 212 kts 88°
2026-05-05 16:56 21.32561 -158.09195 2253 ft 194 kts 89°
2026-05-05 16:57 21.32551 -158.07809 2231 ft 178 kts 89°
2026-05-05 16:57 21.32539 -158.06529 2221 ft 167 kts 89°
2026-05-05 16:57 21.32527 -158.05312 2072 ft 161 kts 89°
2026-05-05 16:57 21.32525 -158.04115 1846 ft 159 kts 88°
2026-05-05 16:58 21.32528 -158.02961 1628 ft 150 kts 88°
2026-05-05 16:58 21.32528 -158.01879 1431 ft 141 kts 88°
2026-05-05 16:58 21.32527 -158.00850 1247 ft 136 kts 88°
2026-05-05 16:58 21.32527 -157.99838 1067 ft 136 kts 87°
2026-05-05 16:59 21.32527 -157.98824 875 ft 136 kts 87°
2026-05-05 16:59 21.32527 -157.97822 688 ft 136 kts 87°
2026-05-05 16:59 21.32526 -157.96806 513 ft 136 kts 88°
2026-05-05 16:59 21.32526 -157.95795 316 ft 135 kts 88°
2026-05-05 17:00 21.32527 -157.94797 156 ft 133 kts 88°
2026-05-05 17:00 21.32528 -157.93820 38 ft 126 kts 90°
2026-05-05 17:00 21.32527 -157.92984 28 ft 90 kts 90°
2026-05-05 17:00 21.32526 -157.92512 28 ft 45 kts 90°
2026-05-05 17:01 21.32547 -157.92288 28 ft 25 kts 64°
2026-05-05 17:01 21.32624 -157.92141 28 ft 20 kts 60°
2026-05-05 17:01 21.32683 -157.92032 28 ft 15 kts 59°
2026-05-05 17:01 21.32755 -157.91978 28 ft 10 kts 335°
2026-05-05 17:02 21.32774 -157.92034 28 ft 8 kts 269°
2026-05-05 17:02 21.32773 -157.92103 28 ft 11 kts 270°
2026-05-05 17:02 21.32774 -157.92211 28 ft 18 kts 270°
2026-05-05 17:02 21.32775 -157.92364 28 ft 22 kts 271°
2026-05-05 17:03 21.32775 -157.92537 28 ft 25 kts 270°
2026-05-05 17:03 21.32767 -157.92723 28 ft 23 kts 257°
2026-05-05 17:03 21.32830 -157.92810 28 ft 16 kts 359°
2026-05-05 17:03 21.32939 -157.92756 28 ft 21 kts 45°
2026-05-05 17:04 21.33051 -157.92635 28 ft 24 kts 41°
2026-05-05 17:04 21.33203 -157.92563 28 ft 25 kts
2026-05-05 17:04 21.33380 -157.92537 28 ft 27 kts
2026-05-05 17:04 21.33526 -157.92558 28 ft 20 kts 325°
2026-05-05 17:05 21.33634 -157.92595 28 ft 8 kts 21°
2026-05-05 17:05 21.33642 -157.92578 28 ft 6 kts 75°
2026-05-05 17:05 21.33638 -157.92551 28 ft 2 kts 111°
2026-05-05 17:05 21.33633 -157.92537 28 ft 0 kts 109°
2026-05-05 17:06 21.33633 -157.92535 28 ft 0 kts 109°